Wetterdaten: Samstag, 14.11.2015
Datum Zeit Temp. Aussen Temp. o. S. +5cm Feuchte Auss BlattFeu 1 Luftdruck Regen Sonnenschein Regendauer Solar Windben Empfang
14.11.2015 00:00 8,1 C 7,8 C 6,1 C 81 % 0 lf 1024,0 hPa 0,0 l/m 0 min 0 min 0 W/m 29,3 km/h (5 Bft) 91,49 %
14.11.2015 00:02 8,0 C 7,8 C 6,1 C 81 % 0 lf 1024,0 hPa 0,0 l/m 0 min 0 min 0 W/m 18,8 km/h (3 Bft) 97,30 %
14.11.2015 00:05 7,9 C 7,8 C 6,1 C 81 % 0 lf 1024,0 hPa 0,0 l/m 0 min 0 min 0 W/m 25,1 km/h (4 Bft) 100,00 %
14.11.2015 00:06 7,9 C 7,8 C 6,1 C 81 % 0 lf 1024,0 hPa 0,0 l/m 0 min 0 min 0 W/m 29,3 km/h (5 Bft) 100,00 %
14.11.2015 00:08 7,9 C 7,8 C 6,1 C 81 % 0 lf 1024,1 hPa 0,0 l/m 0 min 0 min 0 W/m 27,2 km/h (4 Bft) 100,00 %
14.11.2015 00:10 7,9 C 7,8 C 6,1 C 81 % 0 lf 1024,1 hPa 0,0 l/m 0 min 0 min 0 W/m 27,2 km/h (4 Bft) 100,00 %
14.11.2015 00:12 7,8 C 7,8 C 6,1 C 81 % 0 lf 1024,2 hPa 0,0 l/m 0 min 0 min 0 W/m 20,9 km/h (4 Bft) 100,00 %
14.11.2015 00:14 7,8 C 7,8 C 6,1 C 81 % 0 lf 1024,2 hPa 0,0 l/m 0 min 0 min 0 W/m 29,3 km/h (5 Bft) 97,87 %
14.11.2015 00:16 7,8 C 7,8 C 6,1 C 81 % 0 lf 1024,2 hPa 0,0 l/m 0 min 0 min 0 W/m 23,0 km/h (4 Bft) 100,00 %
14.11.2015 00:18 7,8 C 7,8 C 6,1 C 81 % 0 lf 1024,3 hPa 0,0 l/m 0 min 0 min 0 W/m 25,1 km/h (4 Bft) 97,87 %
14.11.2015 00:20 7,8 C 7,8 C 6,1 C 81 % 0 lf 1024,3 hPa 0,0 l/m 0 min 0 min 0 W/m 23,0 km/h (4 Bft) 97,83 %
14.11.2015 00:22 7,8 C 7,8 C 6,1 C 81 % 0 lf 1024,3 hPa 0,0 l/m 0 min 0 min 0 W/m 23,0 km/h (4 Bft) 100,00 %
14.11.2015 00:24 7,8 C 7,8 C 6,1 C 80 % 0 lf 1024,3 hPa 0,0 l/m 0 min 0 min 0 W/m 33,5 km/h (5 Bft) 97,87 %
14.11.2015 00:26 7,8 C 7,8 C 6,1 C 80 % 0 lf 1024,4 hPa 0,0 l/m 0 min 0 min 0 W/m 27,2 km/h (4 Bft) 95,74 %
14.11.2015 00:28 7,8 C 7,8 C 6,1 C 80 % 0 lf 1024,4 hPa 0,0 l/m 0 min 0 min 0 W/m 37,7 km/h (5 Bft) 100,00 %
14.11.2015 00:30 7,7 C 7,8 C 6,1 C 80 % 0 lf 1024,4 hPa 0,0 l/m 0 min 0 min 0 W/m 25,1 km/h (4 Bft) 100,00 %
14.11.2015 00:32 7,7 C 7,8 C 6,1 C 80 % 0 lf 1024,4 hPa 0,0 l/m 0 min 0 min 0 W/m 33,5 km/h (5 Bft) 97,87 %
14.11.2015 00:34 7,7 C 7,8 C 6,1 C 80 % 0 lf 1024,4 hPa 0,0 l/m 0 min 0 min 0 W/m 29,3 km/h (5 Bft) 93,62 %
14.11.2015 00:36 7,7 C 7,8 C 6,1 C 80 % 0 lf 1024,4 hPa 0,0 l/m 0 min 0 min 0 W/m 39,7 km/h (6 Bft) 93,62 %
14.11.2015 00:38 7,7 C 7,8 C 6,1 C 80 % 0 lf 1024,4 hPa 0,0 l/m 0 min 0 min 0 W/m 27,2 km/h (4 Bft) 97,87 %
14.11.2015 00:40 7,7 C 7,8 C 6,1 C 80 % 0 lf 1024,4 hPa 0,0 l/m 0 min 0 min 0 W/m 23,0 km/h (4 Bft) 97,87 %
14.11.2015 00:42 7,7 C 7,2 C 6,1 C 80 % 0 lf 1024,4 hPa 0,0 l/m 0 min 0 min 0 W/m 23,0 km/h (4 Bft) 93,48 %
14.11.2015 00:44 7,7 C 7,8 C 6,1 C 80 % 0 lf 1024,4 hPa 0,0 l/m 0 min 0 min 0 W/m 25,1 km/h (4 Bft) 95,74 %
14.11.2015 00:46 7,7 C 7,2 C 6,1 C 80 % 0 lf 1024,4 hPa 0,0 l/m 0 min 0 min 0 W/m 25,1 km/h (4 Bft) 95,74 %
14.11.2015 00:48 7,7 C 7,2 C 6,1 C 80 % 0 lf 1024,6 hPa 0,0 l/m 0 min 0 min 0 W/m 20,9 km/h (4 Bft) 95,74 %
14.11.2015 00:50 7,7 C 7,2 C 6,1 C 80 % 0 lf 1024,5 hPa 0,0 l/m 0 min 0 min 0 W/m 20,9 km/h (4 Bft) 87,23 %
14.11.2015 00:52 7,6 C 7,2 C 6,1 C 80 % 0 lf 1024,5 hPa 0,0 l/m 0 min 0 min 0 W/m 20,9 km/h (4 Bft) 91,49 %
14.11.2015 00:54 7,6 C 7,2 C 6,1 C 80 % 0 lf 1024,6 hPa 0,0 l/m 0 min 0 min 0 W/m 25,1 km/h (4 Bft) 93,48 %
14.11.2015 00:56 7,6 C 7,2 C 6,1 C 79 % 0 lf 1024,6 hPa 0,0 l/m 0 min 0 min 0 W/m 35,6 km/h (5 Bft) 92,00 %
14.11.2015 00:58 7,6 C 7,8 C 6,1 C 80 % 0 lf 1024,6 hPa 0,0 l/m 0 min 0 min 0 W/m 31,4 km/h (5 Bft) 91,30 %
14.11.2015 01:00 7,6 C 7,2 C 6,1 C 79 % 0 lf 1024,6 hPa 0,0 l/m 0 min 0 min 0 W/m 31,4 km/h (5 Bft) 89,36 %
14.11.2015 01:02 7,6 C 7,8 C 6,1 C 79 % 0 lf 1024,6 hPa 0,0 l/m 0 min 0 min 0 W/m 23,0 km/h (4 Bft) 91,49 %
14.11.2015 01:04 7,6 C 7,8 C 6,1 C 79 % 0 lf 1024,7 hPa 0,0 l/m 0 min 0 min 0 W/m 25,1 km/h (4 Bft) 91,49 %
14.11.2015 01:06 7,6 C 7,8 C 6,1 C 79 % 0 lf 1024,7 hPa 0,0 l/m 0 min 0 min 0 W/m 27,2 km/h (4 Bft) 89,36 %
14.11.2015 01:08 7,6 C 7,2 C 6,1 C 79 % 0 lf 1024,7 hPa 0,0 l/m 0 min 0 min 0 W/m 23,0 km/h (4 Bft) 89,36 %
14.11.2015 01:10 7,5 C 7,2 C 6,1 C 79 % 0 lf 1024,7 hPa 0,0 l/m 0 min 0 min 0 W/m 23,0 km/h (4 Bft) 89,13 %
14.11.2015 01:12 7,5 C 7,2 C 6,1 C 79 % 0 lf 1024,7 hPa 0,0 l/m 0 min 0 min 0 W/m 23,0 km/h (4 Bft) 93,62 %
14.11.2015 01:14 7,5 C 7,2 C 6,1 C 79 % 0 lf 1024,7 hPa 0,0 l/m 0 min 0 min 0 W/m 25,1 km/h (4 Bft) 91,49 %
14.11.2015 01:16 7,5 C 7,2 C 6,1 C 79 % 0 lf 1024,7 hPa 0,0 l/m 0 min 0 min 0 W/m 20,9 km/h (4 Bft) 93,62 %
14.11.2015 01:18 7,4 C 7,2 C 6,1 C 79 % 0 lf 1024,8 hPa 0,0 l/m 0 min 0 min 0 W/m 31,4 km/h (5 Bft) 93,62 %
14.11.2015 01:20 7,4 C 7,2 C 6,1 C 79 % 0 lf 1024,8 hPa 0,0 l/m 0 min 0 min 0 W/m 20,9 km/h (4 Bft) 91,30 %
14.11.2015 01:22 7,4 C 7,2 C 5,6 C 79 % 0 lf 1024,8 hPa 0,0 l/m 0 min 0 min 0 W/m 27,2 km/h (4 Bft) 91,49 %
14.11.2015 01:24 7,4 C 7,2 C 5,6 C 79 % 0 lf 1024,8 hPa 0,0 l/m 0 min 0 min 0 W/m 27,2 km/h (4 Bft) 89,36 %
14.11.2015 01:26 7,4 C 7,2 C 5,6 C 79 % 0 lf 1024,9 hPa 0,0 l/m 0 min 0 min 0 W/m 27,2 km/h (4 Bft) 91,49 %
14.11.2015 01:28 7,4 C 7,2 C 5,6 C 79 % 0 lf 1024,8 hPa 0,0 l/m 0 min 0 min 0 W/m 23,0 km/h (4 Bft) 93,62 %
14.11.2015 01:30 7,3 C 7,2 C 5,6 C 79 % 0 lf 1024,8 hPa 0,0 l/m 0 min 0 min 0 W/m 16,7 km/h (3 Bft) 93,62 %
14.11.2015 01:32 7,3 C 7,2 C 5,6 C 79 % 0 lf 1024,9 hPa 0,0 l/m 0 min 0 min 0 W/m 25,1 km/h (4 Bft) 91,30 %
14.11.2015 01:34 7,3 C 7,2 C 5,6 C 79 % 0 lf 1024,8 hPa 0,0 l/m 0 min 0 min 0 W/m 25,1 km/h (4 Bft) 91,49 %
14.11.2015 01:36 7,3 C 7,2 C 5,6 C 80 % 0 lf 1024,9 hPa 0,0 l/m 0 min 0 min 0 W/m 23,0 km/h (4 Bft) 93,62 %
14.11.2015 01:38 7,3 C 7,2 C 5,6 C 80 % 0 lf 1024,9 hPa 0,0 l/m 0 min 0 min 0 W/m 25,1 km/h (4 Bft) 91,49 %
14.11.2015 01:40 7,3 C 7,2 C 5,6 C 80 % 0 lf 1024,9 hPa 0,0 l/m 0 min 0 min 0 W/m 23,0 km/h (4 Bft) 95,74 %
14.11.2015 01:42 7,2 C 6,7 C 5,6 C 80 % 0 lf 1024,8 hPa 0,0 l/m 0 min 0 min 0 W/m 18,8 km/h (3 Bft) 93,62 %
14.11.2015 01:44 7,2 C 6,7 C 5,6 C 80 % 0 lf 1024,8 hPa 0,0 l/m 0 min 0 min 0 W/m 25,1 km/h (4 Bft) 95,65 %
14.11.2015 01:46 7,2 C 6,7 C 5,6 C 80 % 0 lf 1024,9 hPa 0,0 l/m 0 min 0 min 0 W/m 27,2 km/h (4 Bft) 95,74 %
14.11.2015 01:48 7,2 C 6,7 C 5,6 C 80 % 0 lf 1024,8 hPa 0,0 l/m 0 min 0 min 0 W/m 18,8 km/h (3 Bft) 100,00 %
14.11.2015 01:50 7,2 C 6,7 C 5,6 C 80 % 0 lf 1024,9 hPa 0,0 l/m 0 min 0 min 0 W/m 23,0 km/h (4 Bft) 95,74 %
14.11.2015 01:52 7,2 C 6,7 C 5,6 C 80 % 0 lf 1025,0 hPa 0,0 l/m 0 min 0 min 0 W/m 25,1 km/h (4 Bft) 97,87 %
14.11.2015 01:54 7,1 C 6,7 C 5,6 C 80 % 0 lf 1024,9 hPa 0,0 l/m 0 min 0 min 0 W/m 18,8 km/h (3 Bft) 100,00 %
14.11.2015 01:56 7,1 C 6,7 C 5,6 C 80 % 0 lf 1024,9 hPa 0,0 l/m 0 min 0 min 0 W/m 27,2 km/h (4 Bft) 95,65 %
14.11.2015 01:58 7,1 C 6,7 C 5,6 C 80 % 0 lf 1024,8 hPa 0,0 l/m 0 min 0 min 0 W/m 29,3 km/h (5 Bft) 95,74 %
14.11.2015 02:00 7,1 C 6,7 C 5,6 C 81 % 0 lf 1024,9 hPa 0,0 l/m 0 min 0 min 0 W/m 23,0 km/h (4 Bft) 95,74 %
14.11.2015 02:02 7,1 C 6,7 C 5,6 C 81 % 0 lf 1024,8 hPa 0,0 l/m 0 min 0 min 0 W/m 31,4 km/h (5 Bft) 97,87 %
14.11.2015 02:04 7,0 C 6,7 C 5,6 C 81 % 0 lf 1024,9 hPa 0,0 l/m 0 min 0 min 0 W/m 35,6 km/h (5 Bft) 97,87 %
14.11.2015 02:06 7,0 C 7,2 C 5,6 C 81 % 0 lf 1024,9 hPa 0,0 l/m 0 min 0 min 0 W/m 29,3 km/h (5 Bft) 100,00 %
14.11.2015 02:08 7,0 C 6,7 C 5,6 C 81 % 0 lf 1025,0 hPa 0,0 l/m 0 min 0 min 0 W/m 20,9 km/h (4 Bft) 100,00 %
14.11.2015 02:10 7,0 C 6,7 C 5,6 C 81 % 0 lf 1025,0 hPa 0,0 l/m 0 min 0 min 0 W/m 27,2 km/h (4 Bft) 100,00 %
14.11.2015 02:12 7,0 C 6,7 C 5,6 C 81 % 0 lf 1025,0 hPa 0,0 l/m 0 min 0 min 0 W/m 23,0 km/h (4 Bft) 97,87 %
14.11.2015 02:14 7,0 C 6,7 C 5,6 C 81 % 0 lf 1025,0 hPa 0,0 l/m 0 min 0 min 0 W/m 25,1 km/h (4 Bft) 97,87 %
14.11.2015 02:16 7,0 C 6,7 C 5,6 C 81 % 0 lf 1025,0 hPa 0,0 l/m 0 min 0 min 0 W/m 25,1 km/h (4 Bft) 97,87 %
14.11.2015 02:18 7,0 C 7,2 C 5,6 C 82 % 0 lf 1024,9 hPa 0,0 l/m 0 min 0 min 0 W/m 29,3 km/h (5 Bft) 100,00 %
14.11.2015 02:20 7,0 C 7,2 C 5,6 C 82 % 0 lf 1024,8 hPa 0,0 l/m 0 min 0 min 0 W/m 33,5 km/h (5 Bft) 97,87 %
14.11.2015 02:22 7,0 C 7,2 C 5,6 C 82 % 0 lf 1024,8 hPa 0,0 l/m 0 min 0 min 0 W/m 29,3 km/h (5 Bft) 100,00 %
14.11.2015 02:24 7,0 C 7,2 C 5,6 C 82 % 0 lf 1024,8 hPa 0,0 l/m 0 min 0 min 0 W/m 27,2 km/h (4 Bft) 97,87 %
14.11.2015 02:26 7,0 C 7,2 C 5,6 C 82 % 0 lf 1024,8 hPa 0,0 l/m 0 min 0 min 0 W/m 23,0 km/h (4 Bft) 100,00 %
14.11.2015 02:28 7,1 C 7,2 C 5,6 C 82 % 0 lf 1024,8 hPa 0,0 l/m 0 min 0 min 0 W/m 31,4 km/h (5 Bft) 100,00 %
14.11.2015 02:30 7,0 C 7,2 C 5,6 C 82 % 0 lf 1024,9 hPa 0,0 l/m 0 min 0 min 0 W/m 31,4 km/h (5 Bft) 91,30 %
14.11.2015 02:32 7,1 C 7,2 C 5,6 C 83 % 0 lf 1024,9 hPa 0,0 l/m 0 min 0 min 0 W/m 29,3 km/h (5 Bft) 93,62 %
14.11.2015 02:34 7,1 C 6,7 C 5,6 C 83 % 0 lf 1024,8 hPa 0,0 l/m 0 min 0 min 0 W/m 23,0 km/h (4 Bft) 95,74 %
14.11.2015 02:36 7,1 C 7,2 C 5,6 C 83 % 0 lf 1024,9 hPa 0,0 l/m 0 min 0 min 0 W/m 35,6 km/h (5 Bft) 97,87 %
14.11.2015 02:38 7,1 C 6,7 C 5,6 C 83 % 0 lf 1024,9 hPa 0,0 l/m 0 min 0 min 0 W/m 29,3 km/h (5 Bft) 93,62 %
14.11.2015 02:40 7,1 C 7,2 C 5,6 C 83 % 0 lf 1024,8 hPa 0,0 l/m 0 min 0 min 0 W/m 23,0 km/h (4 Bft) 97,87 %
14.11.2015 02:42 7,1 C 6,7 C 5,6 C 83 % 0 lf 1024,8 hPa 0,0 l/m 0 min 0 min 0 W/m 31,4 km/h (5 Bft) 100,00 %
14.11.2015 02:44 7,1 C 7,2 C 5,6 C 83 % 0 lf 1024,9 hPa 0,0 l/m 0 min 0 min 0 W/m 29,3 km/h (5 Bft) 95,74 %
14.11.2015 02:46 7,1 C 7,2 C 5,6 C 83 % 0 lf 1024,9 hPa 0,0 l/m 0 min 0 min 0 W/m 27,2 km/h (4 Bft) 95,74 %
14.11.2015 02:48 7,1 C 7,2 C 5,6 C 83 % 0 lf 1024,8 hPa 0,0 l/m 0 min 0 min 0 W/m 20,9 km/h (4 Bft) 97,87 %
14.11.2015 02:50 7,1 C 6,7 C 5,6 C 83 % 0 lf 1024,9 hPa 0,0 l/m 0 min 0 min 0 W/m 23,0 km/h (4 Bft) 95,74 %
14.11.2015 02:52 7,1 C 6,7 C 5,6 C 83 % 0 lf 1024,8 hPa 0,0 l/m 0 min 0 min 0 W/m 23,0 km/h (4 Bft) 97,87 %
14.11.2015 02:54 7,1 C 6,7 C 5,6 C 83 % 0 lf 1024,8 hPa 0,0 l/m 0 min 0 min 0 W/m 29,3 km/h (5 Bft) 93,48 %
14.11.2015 02:56 7,1 C 7,2 C 5,6 C 84 % 0 lf 1024,8 hPa 0,0 l/m 0 min 0 min 0 W/m 29,3 km/h (5 Bft) 93,62 %
14.11.2015 02:58 7,1 C 7,2 C 5,6 C 84 % 0 lf 1024,7 hPa 0,0 l/m 0 min 0 min 0 W/m 27,2 km/h (4 Bft) 97,87 %
14.11.2015 03:00 7,1 C 7,2 C 5,6 C 84 % 0 lf 1024,6 hPa 0,0 l/m 0 min 0 min 0 W/m 31,4 km/h (5 Bft) 97,87 %
14.11.2015 03:02 7,1 C 7,2 C 5,6 C 84 % 0 lf 1024,6 hPa 0,0 l/m 0 min 0 min 0 W/m 31,4 km/h (5 Bft) 95,74 %
14.11.2015 03:04 7,1 C 7,2 C 5,6 C 84 % 0 lf 1024,5 hPa 0,0 l/m 0 min 0 min 0 W/m 31,4 km/h (5 Bft) 95,74 %
14.11.2015 03:06 7,1 C 7,2 C 5,6 C 84 % 0 lf 1024,6 hPa 0,0 l/m 0 min 0 min 0 W/m 29,3 km/h (5 Bft) 100,00 %
14.11.2015 03:08 7,1 C 7,2 C 5,6 C 84 % 0 lf 1024,5 hPa 0,0 l/m 0 min 0 min 0 W/m 25,1 km/h (4 Bft) 93,62 %
14.11.2015 03:10 7,1 C 7,2 C 5,6 C 84 % 0 lf 1024,4 hPa 0,0 l/m 0 min 0 min 0 W/m 29,3 km/h (5 Bft) 100,00 %
14.11.2015 03:12 7,2 C 7,2 C 5,6 C 84 % 0 lf 1024,5 hPa 0,0 l/m 0 min 0 min 0 W/m 33,5 km/h (5 Bft) 100,00 %
14.11.2015 03:14 7,2 C 7,2 C 6,1 C 84 % 0 lf 1024,5 hPa 0,0 l/m 0 min 0 min 0 W/m 33,5 km/h (5 Bft) 97,87 %
14.11.2015 03:16 7,2 C 7,2 C 6,1 C 84 % 0 lf 1024,5 hPa 0,0 l/m 0 min 0 min 0 W/m 31,4 km/h (5 Bft) 97,87 %
14.11.2015 03:18 7,2 C 7,2 C 6,1 C 84 % 0 lf 1024,5 hPa 0,0 l/m 0 min 0 min 0 W/m 35,6 km/h (5 Bft) 97,83 %
14.11.2015 03:20 7,2 C 7,2 C 6,1 C 84 % 0 lf 1024,4 hPa 0,0 l/m 0 min 0 min 0 W/m 27,2 km/h (4 Bft) 97,87 %
14.11.2015 03:22 7,2 C 7,2 C 6,1 C 84 % 0 lf 1024,5 hPa 0,0 l/m 0 min 0 min 0 W/m 39,7 km/h (6 Bft) 97,87 %
14.11.2015 03:24 7,3 C 7,2 C 6,1 C 83 % 0 lf 1024,4 hPa 0,0 l/m 0 min 0 min 0 W/m 33,5 km/h (5 Bft) 100,00 %
14.11.2015 03:26 7,3 C 7,2 C 6,1 C 83 % 0 lf 1024,4 hPa 0,0 l/m 0 min 0 min 0 W/m 41,8 km/h (6 Bft) 97,87 %
14.11.2015 03:28 7,3 C 7,2 C 6,1 C 84 % 0 lf 1024,4 hPa 0,0 l/m 0 min 0 min 0 W/m 29,3 km/h (5 Bft) 97,87 %
14.11.2015 03:30 7,3 C 7,2 C 6,1 C 84 % 0 lf 1024,4 hPa 0,0 l/m 0 min 0 min 0 W/m 29,3 km/h (5 Bft) 97,83 %
14.11.2015 03:32 7,3 C 7,2 C 6,1 C 84 % 0 lf 1024,4 hPa 0,0 l/m 0 min 0 min 0 W/m 31,4 km/h (5 Bft) 97,87 %
14.11.2015 03:34 7,3 C 7,2 C 6,1 C 84 % 0 lf 1024,4 hPa 0,0 l/m 0 min 0 min 0 W/m 37,7 km/h (5 Bft) 97,87 %
14.11.2015 03:36 7,3 C 7,2 C 6,1 C 84 % 0 lf 1024,4 hPa 0,0 l/m 0 min 0 min 0 W/m 29,3 km/h (5 Bft) 95,74 %
14.11.2015 03:38 7,3 C 7,2 C 6,1 C 84 % 0 lf 1024,4 hPa 0,0 l/m 0 min 0 min 0 W/m 31,4 km/h (5 Bft) 97,87 %
14.11.2015 03:40 7,4 C 7,2 C 6,1 C 84 % 0 lf 1024,3 hPa 0,0 l/m 0 min 0 min 0 W/m 31,4 km/h (5 Bft) 97,83 %
14.11.2015 03:42 7,4 C 7,2 C 6,1 C 84 % 0 lf 1024,3 hPa 0,0 l/m 0 min 0 min 0 W/m 33,5 km/h (5 Bft) 97,87 %
14.11.2015 03:44 7,4 C 7,2 C 6,1 C 84 % 0 lf 1024,3 hPa 0,0 l/m 0 min 0 min 0 W/m 37,7 km/h (5 Bft) 100,00 %
14.11.2015 03:46 7,4 C 7,2 C 6,1 C 84 % 0 lf 1024,3 hPa 0,0 l/m 0 min 0 min 0 W/m 35,6 km/h (5 Bft) 95,74 %
14.11.2015 03:48 7,4 C 7,2 C 6,1 C 84 % 0 lf 1024,3 hPa 0,0 l/m 0 min 0 min 0 W/m 29,3 km/h (5 Bft) 95,74 %
14.11.2015 03:50 7,4 C 7,8 C 6,1 C 84 % 0 lf 1024,3 hPa 0,0 l/m 0 min 0 min 0 W/m 35,6 km/h (5 Bft) 95,74 %
14.11.2015 03:52 7,4 C 7,2 C 6,1 C 84 % 0 lf 1024,3 hPa 0,0 l/m 0 min 0 min 0 W/m 29,3 km/h (5 Bft) 93,48 %
14.11.2015 03:54 7,4 C 7,8 C 6,1 C 84 % 0 lf 1024,3 hPa 0,0 l/m 0 min 0 min 0 W/m 46,0 km/h (6 Bft) 95,74 %
14.11.2015 03:56 7,4 C 7,2 C 6,1 C 84 % 0 lf 1024,3 hPa 0,0 l/m 0 min 0 min 0 W/m 31,4 km/h (5 Bft) 93,62 %
14.11.2015 03:58 7,4 C 7,2 C 6,1 C 84 % 0 lf 1024,3 hPa 0,0 l/m 0 min 0 min 0 W/m 35,6 km/h (5 Bft) 91,49 %
14.11.2015 04:00 7,4 C 7,8 C 6,1 C 84 % 0 lf 1024,2 hPa 0,0 l/m 0 min 0 min 0 W/m 37,7 km/h (5 Bft) 91,49 %
14.11.2015 04:02 7,4 C 7,8 C 6,1 C 84 % 0 lf 1024,3 hPa 0,0 l/m 0 min 0 min 0 W/m 31,4 km/h (5 Bft) 96,88 %
14.11.2015 04:04 7,5 C 7,8 C 6,1 C 84 % 0 lf 1024,2 hPa 0,0 l/m 0 min 0 min 0 W/m 41,8 km/h (6 Bft) 93,48 %
14.11.2015 04:06 7,5 C 7,8 C 6,1 C 84 % 0 lf 1024,2 hPa 0,0 l/m 0 min 0 min 0 W/m 31,4 km/h (5 Bft) 91,49 %
14.11.2015 04:08 7,5 C 7,8 C 6,1 C 84 % 0 lf 1024,3 hPa 0,0 l/m 0 min 0 min 0 W/m 29,3 km/h (5 Bft) 95,74 %
14.11.2015 04:10 7,5 C 7,8 C 6,1 C 84 % 0 lf 1024,1 hPa 0,0 l/m 0 min 0 min 0 W/m 35,6 km/h (5 Bft) 95,74 %
14.11.2015 04:12 7,6 C 7,8 C 6,1 C 84 % 0 lf 1024,1 hPa 0,0 l/m 0 min 0 min 0 W/m 31,4 km/h (5 Bft) 95,74 %
14.11.2015 04:14 7,6 C 7,8 C 6,1 C 84 % 0 lf 1024,1 hPa 0,0 l/m 0 min 0 min 0 W/m 27,2 km/h (4 Bft) 95,74 %
14.11.2015 04:16 7,6 C 7,2 C 6,1 C 84 % 0 lf 1024,2 hPa 0,0 l/m 0 min 0 min 0 W/m 35,6 km/h (5 Bft) 91,30 %
14.11.2015 04:18 7,6 C 7,2 C 6,1 C 84 % 0 lf 1024,2 hPa 0,0 l/m 0 min 0 min 0 W/m 31,4 km/h (5 Bft) 93,62 %
14.11.2015 04:20 7,6 C 7,2 C 6,1 C 84 % 0 lf 1024,3 hPa 0,0 l/m 0 min 0 min 0 W/m 27,2 km/h (4 Bft) 97,87 %
14.11.2015 04:22 7,6 C 7,8 C 6,1 C 84 % 0 lf 1024,2 hPa 0,0 l/m 0 min 0 min 0 W/m 35,6 km/h (5 Bft) 95,74 %
14.11.2015 04:24 7,6 C 7,2 C 6,1 C 84 % 0 lf 1024,2 hPa 0,0 l/m 0 min 0 min 0 W/m 31,4 km/h (5 Bft) 95,74 %
14.11.2015 04:26 7,5 C 7,2 C 6,1 C 84 % 0 lf 1024,2 hPa 0,0 l/m 0 min 0 min 0 W/m 29,3 km/h (5 Bft) 95,65 %
14.11.2015 04:28 7,5 C 7,2 C 6,1 C 84 % 0 lf 1024,2 hPa 0,0 l/m 0 min 0 min 0 W/m 23,0 km/h (4 Bft) 93,62 %
14.11.2015 04:30 7,5 C 7,2 C 6,1 C 84 % 0 lf 1024,2 hPa 0,0 l/m 0 min 0 min 0 W/m 27,2 km/h (4 Bft) 95,74 %
14.11.2015 04:32 7,5 C 7,2 C 6,1 C 84 % 0 lf 1024,2 hPa 0,0 l/m 0 min 0 min 0 W/m 37,7 km/h (5 Bft) 95,74 %
14.11.2015 04:34 7,5 C 7,2 C 6,1 C 84 % 0 lf 1024,2 hPa 0,0 l/m 0 min 0 min 0 W/m 33,5 km/h (5 Bft) 93,62 %
14.11.2015 04:36 7,4 C 7,2 C 6,1 C 84 % 0 lf 1024,1 hPa 0,0 l/m 0 min 0 min 0 W/m 33,5 km/h (5 Bft) 95,74 %
14.11.2015 04:38 7,4 C 7,2 C 6,1 C 84 % 0 lf 1024,2 hPa 0,0 l/m 0 min 0 min 0 W/m 27,2 km/h (4 Bft) 93,48 %
14.11.2015 04:40 7,5 C 7,2 C 6,1 C 84 % 0 lf 1024,2 hPa 0,0 l/m 0 min 0 min 0 W/m 31,4 km/h (5 Bft) 95,74 %
14.11.2015 04:42 7,4 C 7,2 C 6,1 C 84 % 0 lf 1024,2 hPa 0,0 l/m 0 min 0 min 0 W/m 33,5 km/h (5 Bft) 95,74 %
14.11.2015 04:44 7,4 C 7,2 C 6,1 C 84 % 0 lf 1024,2 hPa 0,0 l/m 0 min 0 min 0 W/m 31,4 km/h (5 Bft) 89,36 %
14.11.2015 04:46 7,4 C 7,2 C 6,1 C 84 % 0 lf 1024,2 hPa 0,0 l/m 0 min 0 min 0 W/m 33,5 km/h (5 Bft) 91,49 %
14.11.2015 04:48 7,4 C 7,2 C 6,1 C 85 % 0 lf 1024,2 hPa 0,0 l/m 0 min 0 min 0 W/m 41,8 km/h (6 Bft) 95,74 %
14.11.2015 04:50 7,4 C 7,2 C 6,1 C 85 % 0 lf 1024,2 hPa 0,0 l/m 0 min 0 min 0 W/m 25,1 km/h (4 Bft) 95,65 %
14.11.2015 04:52 7,4 C 7,2 C 6,1 C 85 % 0 lf 1024,2 hPa 0,0 l/m 0 min 0 min 0 W/m 25,1 km/h (4 Bft) 95,74 %
14.11.2015 04:54 7,4 C 7,2 C 6,1 C 85 % 0 lf 1024,2 hPa 0,0 l/m 0 min 0 min 0 W/m 25,1 km/h (4 Bft) 93,62 %
14.11.2015 04:56 7,4 C 7,2 C 6,1 C 85 % 0 lf 1024,2 hPa 0,0 l/m 0 min 0 min 0 W/m 27,2 km/h (4 Bft) 95,74 %
14.11.2015 04:58 7,4 C 7,8 C 6,1 C 85 % 0 lf 1024,2 hPa 0,0 l/m 0 min 0 min 0 W/m 41,8 km/h (6 Bft) 97,87 %
14.11.2015 05:00 7,4 C 7,2 C 6,1 C 85 % 0 lf 1024,2 hPa 0,0 l/m 0 min 0 min 0 W/m 33,5 km/h (5 Bft) 95,74 %
14.11.2015 05:02 7,4 C 7,2 C 6,1 C 85 % 0 lf 1024,2 hPa 0,0 l/m 0 min 0 min 0 W/m 27,2 km/h (4 Bft) 95,65 %
14.11.2015 05:04 7,4 C 7,2 C 6,1 C 85 % 0 lf 1024,2 hPa 0,0 l/m 0 min 0 min 0 W/m 25,1 km/h (4 Bft) 97,87 %
14.11.2015 05:06 7,4 C 7,2 C 6,1 C 85 % 0 lf 1024,3 hPa 0,0 l/m 0 min 0 min 0 W/m 35,6 km/h (5 Bft) 97,87 %
14.11.2015 05:08 7,4 C 7,2 C 6,1 C 85 % 0 lf 1024,3 hPa 0,0 l/m 0 min 0 min 0 W/m 23,0 km/h (4 Bft) 97,87 %
14.11.2015 05:10 7,4 C 7,2 C 6,1 C 85 % 0 lf 1024,3 hPa 0,0 l/m 0 min 0 min 0 W/m 27,2 km/h (4 Bft) 97,87 %
14.11.2015 05:12 7,4 C 7,2 C 6,1 C 85 % 0 lf 1024,2 hPa 0,0 l/m 0 min 0 min 0 W/m 27,2 km/h (4 Bft) 97,87 %
14.11.2015 05:14 7,4 C 7,2 C 6,1 C 85 % 0 lf 1024,3 hPa 0,0 l/m 0 min 0 min 0 W/m 33,5 km/h (5 Bft) 97,83 %
14.11.2015 05:16 7,4 C 7,2 C 6,1 C 85 % 0 lf 1024,2 hPa 0,0 l/m 0 min 0 min 0 W/m 23,0 km/h (4 Bft) 95,74 %
14.11.2015 05:18 7,4 C 7,2 C 6,1 C 85 % 0 lf 1024,2 hPa 0,0 l/m 0 min 0 min 0 W/m 23,0 km/h (4 Bft) 97,87 %
14.11.2015 05:20 7,4 C 7,2 C 6,1 C 86 % 0 lf 1024,2 hPa 0,0 l/m 0 min 0 min 0 W/m 33,5 km/h (5 Bft) 91,49 %
14.11.2015 05:22 7,4 C 7,2 C 6,1 C 86 % 0 lf 1024,2 hPa 0,0 l/m 0 min 0 min 0 W/m 33,5 km/h (5 Bft) 93,62 %
14.11.2015 05:24 7,4 C 7,2 C 6,1 C 86 % 0 lf 1024,2 hPa 0,0 l/m 0 min 0 min 0 W/m 29,3 km/h (5 Bft) 97,87 %
14.11.2015 05:26 7,4 C 7,8 C 6,1 C 86 % 0 lf 1024,1 hPa 0,0 l/m 0 min 0 min 0 W/m 31,4 km/h (5 Bft) 95,65 %
14.11.2015 05:28 7,4 C 7,8 C 6,1 C 86 % 0 lf 1024,1 hPa 0,0 l/m 0 min 0 min 0 W/m 39,7 km/h (6 Bft) 95,74 %
14.11.2015 05:30 7,4 C 7,2 C 6,1 C 86 % 0 lf 1024,1 hPa 0,0 l/m 0 min 0 min 0 W/m 27,2 km/h (4 Bft) 95,74 %
14.11.2015 05:32 7,5 C 7,8 C 6,1 C 86 % 0 lf 1024,1 hPa 0,0 l/m 0 min 0 min 0 W/m 27,2 km/h (4 Bft) 97,87 %
14.11.2015 05:34 7,5 C 7,2 C 6,1 C 86 % 0 lf 1024,1 hPa 0,0 l/m 0 min 0 min 0 W/m 29,3 km/h (5 Bft) 97,87 %
14.11.2015 05:36 7,5 C 7,2 C 6,1 C 86 % 0 lf 1024,1 hPa 0,0 l/m 0 min 0 min 0 W/m 23,0 km/h (4 Bft) 95,74 %
14.11.2015 05:38 7,5 C 7,2 C 6,1 C 86 % 0 lf 1024,2 hPa 0,0 l/m 0 min 0 min 0 W/m 35,6 km/h (5 Bft) 95,65 %
14.11.2015 05:40 7,5 C 7,2 C 6,1 C 86 % 0 lf 1024,1 hPa 0,0 l/m 0 min 0 min 0 W/m 20,9 km/h (4 Bft) 97,87 %
14.11.2015 05:42 7,5 C 7,8 C 6,1 C 86 % 0 lf 1024,1 hPa 0,0 l/m 0 min 0 min 0 W/m 37,7 km/h (5 Bft) 97,87 %
14.11.2015 05:44 7,5 C 7,8 C 6,1 C 86 % 0 lf 1024,1 hPa 0,0 l/m 0 min 0 min 0 W/m 31,4 km/h (5 Bft) 95,74 %
14.11.2015 05:46 7,5 C 7,8 C 6,1 C 86 % 0 lf 1024,1 hPa 0,0 l/m 0 min 0 min 0 W/m 35,6 km/h (5 Bft) 97,87 %
14.11.2015 05:48 7,6 C 7,8 C 6,1 C 86 % 0 lf 1024,2 hPa 0,0 l/m 0 min 0 min 0 W/m 27,2 km/h (4 Bft) 97,87 %
14.11.2015 05:50 7,6 C 7,8 C 6,1 C 86 % 0 lf 1024,3 hPa 0,0 l/m 0 min 0 min 0 W/m 33,5 km/h (5 Bft) 97,83 %
14.11.2015 05:52 7,6 C 7,8 C 6,1 C 86 % 0 lf 1024,3 hPa 0,0 l/m 0 min 0 min 0 W/m 29,3 km/h (5 Bft) 89,36 %
14.11.2015 05:54 7,6 C 7,8 C 6,1 C 86 % 0 lf 1024,3 hPa 0,0 l/m 0 min 0 min 0 W/m 27,2 km/h (4 Bft) 95,74 %
14.11.2015 05:56 7,6 C 7,8 C 6,1 C 86 % 0 lf 1024,3 hPa 0,0 l/m 0 min 0 min 0 W/m 39,7 km/h (6 Bft) 95,74 %
14.11.2015 05:58 7,6 C 7,8 C 6,1 C 86 % 0 lf 1024,3 hPa 0,0 l/m 0 min 0 min 0 W/m 25,1 km/h (4 Bft) 95,74 %
14.11.2015 06:00 7,6 C 7,8 C 6,1 C 86 % 0 lf 1024,3 hPa 0,0 l/m 0 min 0 min 0 W/m 33,5 km/h (5 Bft) 97,83 %
14.11.2015 06:02 7,6 C 7,8 C 6,1 C 86 % 0 lf 1024,3 hPa 0,0 l/m 0 min 0 min 0 W/m 31,4 km/h (5 Bft) 100,00 %
14.11.2015 06:04 7,6 C 7,8 C 6,1 C 86 % 0 lf 1024,3 hPa 0,0 l/m 0 min 0 min 0 W/m 25,1 km/h (4 Bft) 95,74 %
14.11.2015 06:06 7,6 C 7,8 C 6,1 C 86 % 0 lf 1024,3 hPa 0,0 l/m 0 min 0 min 0 W/m 25,1 km/h (4 Bft) 100,00 %
14.11.2015 06:08 7,6 C 7,8 C 6,1 C 86 % 0 lf 1024,3 hPa 0,0 l/m 0 min 0 min 0 W/m 16,7 km/h (3 Bft) 97,87 %
14.11.2015 06:10 7,6 C 7,8 C 6,1 C 86 % 0 lf 1024,3 hPa 0,0 l/m 0 min 0 min 0 W/m 29,3 km/h (5 Bft) 97,87 %
14.11.2015 06:12 7,6 C 7,8 C 6,1 C 86 % 0 lf 1024,3 hPa 0,0 l/m 0 min 0 min 0 W/m 23,0 km/h (4 Bft) 97,83 %
14.11.2015 06:14 7,6 C 7,8 C 6,1 C 86 % 0 lf 1024,3 hPa 0,0 l/m 0 min 0 min 0 W/m 29,3 km/h (5 Bft) 95,74 %
14.11.2015 06:16 7,6 C 7,8 C 6,1 C 86 % 0 lf 1024,3 hPa 0,0 l/m 0 min 0 min 0 W/m 23,0 km/h (4 Bft) 97,87 %
14.11.2015 06:18 7,6 C 7,8 C 6,1 C 86 % 0 lf 1024,2 hPa 0,0 l/m 0 min 0 min 0 W/m 18,8 km/h (3 Bft) 97,87 %
14.11.2015 06:20 7,6 C 7,8 C 6,1 C 86 % 0 lf 1024,2 hPa 0,0 l/m 0 min 0 min 0 W/m 29,3 km/h (5 Bft) 95,74 %
14.11.2015 06:22 7,6 C 7,8 C 6,1 C 86 % 0 lf 1024,3 hPa 0,0 l/m 0 min 0 min 0 W/m 23,0 km/h (4 Bft) 95,74 %
14.11.2015 06:24 7,6 C 7,8 C 6,7 C 86 % 0 lf 1024,3 hPa 0,0 l/m 0 min 0 min 0 W/m 31,4 km/h (5 Bft) 95,65 %
14.11.2015 06:26 7,6 C 7,8 C 6,7 C 86 % 0 lf 1024,3 hPa 0,0 l/m 0 min 0 min 0 W/m 33,5 km/h (5 Bft) 95,74 %
14.11.2015 06:28 7,6 C 7,8 C 6,7 C 86 % 0 lf 1024,3 hPa 0,0 l/m 0 min 0 min 0 W/m 37,7 km/h (5 Bft) 95,74 %
14.11.2015 06:30 7,7 C 7,8 C 6,7 C 86 % 0 lf 1024,2 hPa 0,0 l/m 0 min 0 min 0 W/m 31,4 km/h (5 Bft) 95,74 %
14.11.2015 06:32 7,7 C 7,8 C 6,7 C 86 % 0 lf 1024,2 hPa 0,0 l/m 0 min 0 min 0 W/m 25,1 km/h (4 Bft) 91,49 %
14.11.2015 06:34 7,7 C 7,8 C 6,7 C 86 % 0 lf 1024,3 hPa 0,0 l/m 0 min 0 min 0 W/m 27,2 km/h (4 Bft) 95,74 %
14.11.2015 06:36 7,7 C 7,8 C 6,7 C 86 % 0 lf 1024,3 hPa 0,0 l/m 0 min 0 min 0 W/m 39,7 km/h (6 Bft) 93,48 %
14.11.2015 06:38 7,8 C 8,3 C 6,7 C 85 % 0 lf 1024,4 hPa 0,0 l/m 0 min 0 min 0 W/m 41,8 km/h (6 Bft) 93,62 %
14.11.2015 06:40 7,8 C 8,3 C 6,7 C 85 % 0 lf 1024,4 hPa 0,0 l/m 0 min 0 min 0 W/m 41,8 km/h (6 Bft) 95,74 %
14.11.2015 06:42 7,8 C 8,3 C 6,7 C 85 % 0 lf 1024,6 hPa 0,0 l/m 0 min 0 min 0 W/m 31,4 km/h (5 Bft) 93,62 %
14.11.2015 06:44 7,9 C 8,3 C 6,7 C 85 % 0 lf 1024,6 hPa 0,0 l/m 0 min 0 min 0 W/m 35,6 km/h (5 Bft) 93,62 %
14.11.2015 06:46 7,9 C 8,3 C 6,7 C 85 % 0 lf 1024,5 hPa 0,0 l/m 0 min 0 min 0 W/m 33,5 km/h (5 Bft) 93,62 %
14.11.2015 06:48 7,9 C 8,3 C 6,7 C 85 % 0 lf 1024,5 hPa 0,0 l/m 0 min 0 min 0 W/m 31,4 km/h (5 Bft) 93,48 %
14.11.2015 06:50 8,0 C 8,3 C 6,7 C 85 % 0 lf 1024,7 hPa 0,0 l/m 0 min 0 min 0 W/m 29,3 km/h (5 Bft) 93,62 %
14.11.2015 06:52 8,0 C 8,3 C 6,7 C 85 % 0 lf 1024,7 hPa 0,0 l/m 0 min 0 min 0 W/m 33,5 km/h (5 Bft) 93,62 %
14.11.2015 06:54 8,0 C 8,3 C 6,7 C 85 % 0 lf 1024,5 hPa 0,0 l/m 0 min 0 min 0 W/m 37,7 km/h (5 Bft) 91,49 %
14.11.2015 06:56 8,1 C 8,3 C 6,7 C 85 % 0 lf 1024,7 hPa 0,0 l/m 0 min 0 min 0 W/m 48,1 km/h (6 Bft) 93,62 %
14.11.2015 06:58 8,1 C 8,3 C 6,7 C 84 % 0 lf 1024,7 hPa 0,0 l/m 0 min 0 min 0 W/m 31,4 km/h (5 Bft) 95,65 %
14.11.2015 07:00 8,1 C 8,3 C 6,7 C 84 % 0 lf 1024,6 hPa 0,0 l/m 0 min 0 min 0 W/m 29,3 km/h (5 Bft) 89,36 %
14.11.2015 07:02 8,1 C 7,8 C 6,7 C 84 % 0 lf 1024,7 hPa 0,0 l/m 0 min 0 min 0 W/m 37,7 km/h (5 Bft) 95,74 %
14.11.2015 07:04 8,1 C 8,3 C 6,7 C 84 % 0 lf 1024,7 hPa 0,0 l/m 0 min 0 min 0 W/m 37,7 km/h (5 Bft) 97,87 %
14.11.2015 07:06 8,1 C 7,8 C 6,7 C 84 % 0 lf 1024,8 hPa 0,0 l/m 0 min 0 min 0 W/m 33,5 km/h (5 Bft) 95,74 %
14.11.2015 07:08 8,1 C 7,8 C 6,7 C 84 % 0 lf 1024,8 hPa 0,0 l/m 0 min 0 min 0 W/m 35,6 km/h (5 Bft) 97,87 %
14.11.2015 07:10 8,1 C 8,3 C 6,7 C 84 % 0 lf 1024,8 hPa 0,0 l/m 0 min 0 min 0 W/m 41,8 km/h (6 Bft) 95,65 %
14.11.2015 07:12 8,1 C 8,3 C 6,7 C 84 % 0 lf 1024,8 hPa 0,0 l/m 0 min 0 min 0 W/m 33,5 km/h (5 Bft) 97,87 %
14.11.2015 07:14 8,1 C 8,3 C 6,7 C 85 % 0 lf 1024,8 hPa 0,0 l/m 0 min 0 min 0 W/m 37,7 km/h (5 Bft) 97,87 %
14.11.2015 07:16 8,1 C 8,3 C 7,2 C 85 % 0 lf 1024,8 hPa 0,0 l/m 0 min 0 min 0 W/m 52,3 km/h (7 Bft) 95,74 %
14.11.2015 07:18 8,1 C 8,3 C 7,2 C 84 % 0 lf 1024,9 hPa 0,0 l/m 0 min 0 min 0 W/m 39,7 km/h (6 Bft) 95,74 %
14.11.2015 07:20 8,1 C 8,3 C 7,2 C 84 % 0 lf 1024,9 hPa 0,0 l/m 0 min 0 min 0 W/m 31,4 km/h (5 Bft) 97,87 %
14.11.2015 07:22 8,1 C 8,3 C 6,7 C 84 % 0 lf 1024,9 hPa 0,0 l/m 0 min 0 min 0 W/m 25,1 km/h (4 Bft) 95,65 %
14.11.2015 07:24 8,2 C 8,3 C 6,7 C 84 % 0 lf 1024,8 hPa 0,0 l/m 0 min 0 min 0 W/m 29,3 km/h (5 Bft) 97,87 %
14.11.2015 07:26 8,1 C 8,3 C 6,7 C 84 % 0 lf 1024,8 hPa 0,0 l/m 0 min 0 min 0 W/m 35,6 km/h (5 Bft) 95,74 %
14.11.2015 07:28 8,1 C 7,8 C 6,7 C 84 % 0 lf 1024,9 hPa 0,0 l/m 0 min 0 min 0 W/m 33,5 km/h (5 Bft) 95,74 %
14.11.2015 07:30 8,1 C 7,8 C 6,7 C 84 % 0 lf 1024,9 hPa 0,0 l/m 0 min 0 min 0 W/m 39,7 km/h (6 Bft) 93,62 %
14.11.2015 07:32 8,1 C 7,8 C 6,7 C 84 % 0 lf 1024,9 hPa 0,0 l/m 0 min 0 min 0 W/m 33,5 km/h (5 Bft) 97,87 %
14.11.2015 07:34 8,1 C 7,8 C 6,7 C 84 % 0 lf 1024,9 hPa 0,0 l/m 0 min 0 min 0 W/m 27,2 km/h (4 Bft) 93,48 %
14.11.2015 07:36 8,1 C 7,8 C 6,7 C 84 % 0 lf 1025,0 hPa 0,0 l/m 0 min 0 min 0 W/m 37,7 km/h (5 Bft) 95,74 %
14.11.2015 07:38 8,0 C 7,8 C 6,7 C 85 % 0 lf 1025,0 hPa 0,0 l/m 0 min 0 min 0 W/m 37,7 km/h (5 Bft) 100,00 %
14.11.2015 07:40 8,0 C 7,8 C 6,7 C 85 % 0 lf 1025,0 hPa 0,0 l/m 0 min 0 min 0 W/m 43,9 km/h (6 Bft) 95,74 %
14.11.2015 07:42 8,0 C 7,8 C 6,7 C 85 % 0 lf 1025,0 hPa 0,0 l/m 0 min 0 min 0 W/m 31,4 km/h (5 Bft) 100,00 %
14.11.2015 07:44 8,0 C 7,8 C 6,7 C 85 % 0 lf 1024,9 hPa 0,0 l/m 0 min 0 min 0 W/m 35,6 km/h (5 Bft) 97,87 %
14.11.2015 07:46 8,0 C 7,8 C 6,7 C 85 % 0 lf 1024,9 hPa 0,0 l/m 0 min 0 min 3 W/m 35,6 km/h (5 Bft) 95,65 %
14.11.2015 07:48 8,0 C 7,8 C 6,7 C 85 % 0 lf 1024,9 hPa 0,0 l/m 0 min 0 min 5 W/m 25,1 km/h (4 Bft) 100,00 %
14.11.2015 07:50 7,9 C 7,8 C 6,7 C 85 % 0 lf 1024,9 hPa 0,0 l/m 0 min 0 min 5 W/m 31,4 km/h (5 Bft) 100,00 %
14.11.2015 07:52 7,9 C 7,8 C 6,7 C 85 % 0 lf 1025,0 hPa 0,0 l/m 0 min 0 min 5 W/m 33,5 km/h (5 Bft) 100,00 %
14.11.2015 07:54 7,9 C 7,8 C 6,7 C 85 % 0 lf 1025,0 hPa 0,0 l/m 0 min 0 min 6 W/m 35,6 km/h (5 Bft) 93,62 %
14.11.2015 07:56 7,9 C 7,8 C 6,7 C 85 % 0 lf 1025,0 hPa 0,0 l/m 0 min 0 min 7 W/m 27,2 km/h (4 Bft) 97,87 %
14.11.2015 07:58 7,9 C 7,8 C 6,7 C 85 % 0 lf 1025,0 hPa 0,0 l/m 0 min 0 min 8 W/m 31,4 km/h (5 Bft) 100,00 %
14.11.2015 08:00 7,9 C 7,8 C 6,7 C 85 % 0 lf 1025,0 hPa 0,0 l/m 0 min 0 min 10 W/m 35,6 km/h (5 Bft) 100,00 %
14.11.2015 08:02 7,9 C 7,8 C 6,7 C 85 % 0 lf 1025,1 hPa 0,0 l/m 0 min 0 min 11 W/m 27,2 km/h (4 Bft) 95,74 %
14.11.2015 08:04 7,9 C 7,8 C 6,7 C 85 % 0 lf 1025,1 hPa 0,0 l/m 0 min 0 min 11 W/m 31,4 km/h (5 Bft) 100,00 %
14.11.2015 08:06 7,8 C 7,8 C 6,7 C 86 % 0 lf 1025,1 hPa 0,0 l/m 0 min 0 min 12 W/m 25,1 km/h (4 Bft) 100,00 %
14.11.2015 08:08 7,8 C 7,8 C 6,7 C 86 % 0 lf 1025,2 hPa 0,0 l/m 0 min 0 min 12 W/m 29,3 km/h (5 Bft) 95,74 %
14.11.2015 08:10 7,8 C 7,8 C 6,7 C 86 % 0 lf 1025,2 hPa 0,0 l/m 0 min 0 min 14 W/m 31,4 km/h (5 Bft) 100,00 %
14.11.2015 08:12 7,8 C 7,8 C 6,7 C 86 % 0 lf 1025,2 hPa 0,0 l/m 0 min 0 min 15 W/m 33,5 km/h (5 Bft) 97,87 %
14.11.2015 08:14 7,8 C 7,8 C 6,7 C 86 % 2 lf 1025,2 hPa 0,0 l/m 0 min 0 min 16 W/m 35,6 km/h (5 Bft) 95,74 %
14.11.2015 08:16 7,8 C 7,8 C 6,7 C 86 % 0 lf 1025,2 hPa 0,0 l/m 0 min 2 min 18 W/m 31,4 km/h (5 Bft) 93,62 %
14.11.2015 08:18 7,8 C 7,8 C 6,7 C 86 % 0 lf 1025,2 hPa 0,0 l/m 0 min 0 min 20 W/m 27,2 km/h (4 Bft) 97,87 %
14.11.2015 08:20 7,8 C 7,8 C 6,7 C 86 % 0 lf 1025,2 hPa 0,0 l/m 0 min 0 min 23 W/m 23,0 km/h (4 Bft) 95,65 %
14.11.2015 08:22 7,8 C 7,8 C 6,1 C 86 % 0 lf 1025,3 hPa 0,0 l/m 0 min 0 min 26 W/m 20,9 km/h (4 Bft) 97,87 %
14.11.2015 08:24 7,8 C 7,8 C 6,1 C 86 % 0 lf 1025,3 hPa 0,0 l/m 0 min 0 min 28 W/m 35,6 km/h (5 Bft) 93,62 %
14.11.2015 08:26 7,8 C 7,8 C 6,1 C 86 % 0 lf 1025,3 hPa 0,0 l/m 0 min 0 min 28 W/m 29,3 km/h (5 Bft) 97,87 %
14.11.2015 08:28 7,8 C 7,8 C 6,1 C 86 % 0 lf 1025,3 hPa 0,0 l/m 0 min 0 min 28 W/m 29,3 km/h (5 Bft) 95,74 %
14.11.2015 08:30 7,8 C 7,8 C 6,7 C 86 % 0 lf 1025,3 hPa 0,0 l/m 0 min 0 min 30 W/m 29,3 km/h (5 Bft) 97,87 %
14.11.2015 08:32 7,8 C 7,8 C 6,7 C 86 % 0 lf 1025,3 hPa 0,0 l/m 0 min 0 min 33 W/m 31,4 km/h (5 Bft) 91,49 %
14.11.2015 08:34 7,8 C 7,8 C 6,7 C 86 % 0 lf 1025,3 hPa 0,0 l/m 0 min 0 min 37 W/m 29,3 km/h (5 Bft) 97,83 %
14.11.2015 08:36 7,7 C 7,8 C 6,7 C 86 % 0 lf 1025,3 hPa 0,0 l/m 0 min 0 min 39 W/m 20,9 km/h (4 Bft) 97,87 %
14.11.2015 08:38 7,8 C 7,8 C 6,7 C 86 % 0 lf 1025,3 hPa 0,0 l/m 0 min 0 min 40 W/m 31,4 km/h (5 Bft) 97,87 %
14.11.2015 08:40 7,8 C 7,8 C 6,7 C 86 % 0 lf 1025,4 hPa 0,0 l/m 0 min 0 min 40 W/m 31,4 km/h (5 Bft) 97,87 %
14.11.2015 08:42 7,7 C 7,8 C 6,7 C 86 % 0 lf 1025,3 hPa 0,0 l/m 0 min 0 min 43 W/m 31,4 km/h (5 Bft) 97,87 %
14.11.2015 08:44 7,7 C 8,3 C 6,7 C 86 % 0 lf 1025,3 hPa 0,0 l/m 0 min 0 min 47 W/m 27,2 km/h (4 Bft) 95,65 %
14.11.2015 08:46 7,8 C 8,3 C 6,7 C 86 % 0 lf 1025,3 hPa 0,0 l/m 0 min 0 min 47 W/m 25,1 km/h (4 Bft) 97,87 %
14.11.2015 08:48 7,8 C 8,3 C 6,7 C 86 % 0 lf 1025,3 hPa 0,0 l/m 0 min 0 min 49 W/m 29,3 km/h (5 Bft) 100,00 %
14.11.2015 08:50 7,8 C 8,3 C 6,7 C 86 % 0 lf 1025,3 hPa 0,0 l/m 0 min 0 min 51 W/m 29,3 km/h (5 Bft) 93,62 %
14.11.2015 08:52 7,8 C 8,3 C 6,7 C 86 % 0 lf 1025,3 hPa 0,0 l/m 0 min 0 min 54 W/m 23,0 km/h (4 Bft) 97,87 %
14.11.2015 08:54 7,8 C 8,3 C 6,7 C 86 % 0 lf 1025,3 hPa 0,0 l/m 0 min 0 min 52 W/m 23,0 km/h (4 Bft) 97,87 %
14.11.2015 08:57 7,8 C 8,3 C 6,7 C 86 % 0 lf 1025,3 hPa 0,0 l/m 0 min 0 min 55 W/m 25,1 km/h (4 Bft) 97,14 %
14.11.2015 08:58 7,8 C 8,3 C 6,7 C 86 % 0 lf 1025,3 hPa 0,0 l/m 1 min 0 min 72 W/m 29,3 km/h (5 Bft) 91,30 %
14.11.2015 09:00 7,8 C 8,3 C 6,7 C 86 % 0 lf 1025,3 hPa 0,0 l/m 2 min 0 min 84 W/m 27,2 km/h (4 Bft) 93,62 %
14.11.2015 09:02 7,8 C 8,3 C 6,7 C 86 % 0 lf 1025,4 hPa 0,0 l/m 2 min 0 min 83 W/m 33,5 km/h (5 Bft) 95,74 %
14.11.2015 09:04 7,8 C 8,3 C 6,7 C 86 % 0 lf 1025,4 hPa 0,0 l/m 2 min 0 min 89 W/m 31,4 km/h (5 Bft) 95,74 %
14.11.2015 09:06 7,8 C 8,3 C 6,7 C 86 % 0 lf 1025,5 hPa 0,0 l/m 2 min 0 min 92 W/m 27,2 km/h (4 Bft) 93,62 %
14.11.2015 09:08 7,8 C 8,9 C 6,7 C 86 % 0 lf 1025,4 hPa 0,0 l/m 2 min 0 min 88 W/m 29,3 km/h (5 Bft) 95,65 %
14.11.2015 09:10 7,8 C 8,3 C 6,7 C 86 % 0 lf 1025,4 hPa 0,0 l/m 2 min 0 min 88 W/m 27,2 km/h (4 Bft) 95,74 %
14.11.2015 09:12 7,9 C 8,3 C 6,7 C 86 % 0 lf 1025,4 hPa 0,0 l/m 2 min 0 min 84 W/m 25,1 km/h (4 Bft) 93,62 %
14.11.2015 09:14 7,9 C 8,9 C 6,7 C 86 % 0 lf 1025,5 hPa 0,0 l/m 2 min 0 min 90 W/m 35,6 km/h (5 Bft) 95,74 %
14.11.2015 09:16 7,9 C 8,9 C 6,7 C 86 % 0 lf 1025,4 hPa 0,0 l/m 2 min 0 min 88 W/m 20,9 km/h (4 Bft) 95,74 %
14.11.2015 09:18 7,9 C 8,9 C 7,2 C 85 % 0 lf 1025,4 hPa 0,0 l/m 2 min 0 min 94 W/m 27,2 km/h (4 Bft) 91,49 %
14.11.2015 09:20 7,9 C 8,9 C 7,2 C 85 % 0 lf 1025,4 hPa 0,0 l/m 2 min 0 min 99 W/m 20,9 km/h (4 Bft) 93,48 %
14.11.2015 09:22 7,9 C 8,9 C 7,2 C 85 % 0 lf 1025,4 hPa 0,0 l/m 2 min 0 min 114 W/m 27,2 km/h (4 Bft) 95,74 %
14.11.2015 09:23 7,9 C 8,9 C 7,2 C 85 % 0 lf 1025,4 hPa 0,0 l/m 1 min 0 min 130 W/m 20,9 km/h (4 Bft) 100,00 %
14.11.2015 09:26 8,0 C 9,4 C 7,2 C 85 % 0 lf 1025,3 hPa 0,0 l/m 2 min 0 min 137 W/m 25,1 km/h (4 Bft) 94,59 %
14.11.2015 09:28 8,0 C 9,4 C 7,2 C 85 % 0 lf 1025,3 hPa 0,0 l/m 2 min 0 min 128 W/m 31,4 km/h (5 Bft) 96,08 %
14.11.2015 09:30 8,1 C 9,4 C 7,2 C 85 % 0 lf 1025,5 hPa 0,0 l/m 2 min 0 min 148 W/m 31,4 km/h (5 Bft) 95,35 %
14.11.2015 09:32 8,1 C 9,4 C 7,2 C 86 % 0 lf 1025,4 hPa 0,0 l/m 2 min 0 min 160 W/m 23,0 km/h (4 Bft) 96,00 %
14.11.2015 09:34 8,2 C 10,0 C 7,2 C 86 % 0 lf 1025,5 hPa 0,0 l/m 2 min 0 min 151 W/m 25,1 km/h (4 Bft) 95,74 %
14.11.2015 09:36 8,2 C 10,0 C 7,8 C 86 % 0 lf 1025,5 hPa 0,0 l/m 2 min 0 min 155 W/m 25,1 km/h (4 Bft) 93,62 %
14.11.2015 09:38 8,2 C 10,0 C 7,8 C 86 % 0 lf 1025,5 hPa 0,0 l/m 2 min 0 min 150 W/m 27,2 km/h (4 Bft) 93,62 %
14.11.2015 09:40 8,3 C 10,6 C 7,8 C 86 % 0 lf 1025,5 hPa 0,0 l/m 2 min 0 min 161 W/m 27,2 km/h (4 Bft) 93,18 %
14.11.2015 09:42 8,3 C 10,0 C 7,8 C 86 % 0 lf 1025,4 hPa 0,0 l/m 2 min 0 min 169 W/m 29,3 km/h (5 Bft) 95,92 %
14.11.2015 09:44 8,4 C 10,6 C 7,8 C 85 % 0 lf 1025,4 hPa 0,0 l/m 2 min 0 min 176 W/m 35,6 km/h (5 Bft) 94,00 %
14.11.2015 09:46 8,4 C 10,6 C 7,8 C 85 % 0 lf 1025,4 hPa 0,0 l/m 2 min 0 min 162 W/m 33,5 km/h (5 Bft) 89,36 %
14.11.2015 09:48 8,5 C 10,6 C 7,8 C 85 % 0 lf 1025,4 hPa 0,0 l/m 2 min 0 min 154 W/m 33,5 km/h (5 Bft) 93,62 %
14.11.2015 09:50 8,6 C 10,6 C 7,8 C 85 % 0 lf 1025,4 hPa 0,0 l/m 2 min 0 min 159 W/m 29,3 km/h (5 Bft) 91,43 %
14.11.2015 09:52 8,6 C 10,6 C 7,8 C 85 % 0 lf 1025,4 hPa 0,0 l/m 2 min 0 min 171 W/m 33,5 km/h (5 Bft) 93,62 %
14.11.2015 09:54 8,6 C 10,6 C 7,8 C 85 % 0 lf 1025,5 hPa 0,0 l/m 2 min 0 min 175 W/m 35,6 km/h (5 Bft) 94,55 %
14.11.2015 09:56 8,7 C 10,6 C 7,8 C 85 % 0 lf 1025,5 hPa 0,0 l/m 2 min 0 min 160 W/m 35,6 km/h (5 Bft) 96,00 %
14.11.2015 09:58 8,7 C 10,6 C 7,8 C 85 % 0 lf 1025,4 hPa 0,0 l/m 2 min 0 min 159 W/m 25,1 km/h (4 Bft) 95,74 %
14.11.2015 10:00 8,7 C 10,6 C 7,8 C 85 % 0 lf 1025,4 hPa 0,0 l/m 2 min 0 min 154 W/m 35,6 km/h (5 Bft) 95,74 %
14.11.2015 10:02 8,8 C 10,6 C 8,3 C 85 % 0 lf 1025,3 hPa 0,0 l/m 2 min 0 min 156 W/m 33,5 km/h (5 Bft) 97,14 %
14.11.2015 10:04 8,8 C 10,6 C 7,8 C 85 % 0 lf 1025,3 hPa 0,0 l/m 2 min 0 min 155 W/m 43,9 km/h (6 Bft) 94,55 %
14.11.2015 10:06 8,8 C 10,6 C 8,3 C 84 % 0 lf 1025,4 hPa 0,0 l/m 2 min 0 min 163 W/m 37,7 km/h (5 Bft) 96,00 %
14.11.2015 10:08 8,9 C 10,6 C 8,3 C 84 % 0 lf 1025,4 hPa 0,0 l/m 2 min 0 min 180 W/m 33,5 km/h (5 Bft) 93,62 %
14.11.2015 10:10 8,9 C 11,1 C 8,3 C 84 % 0 lf 1025,4 hPa 0,0 l/m 2 min 0 min 185 W/m 43,9 km/h (6 Bft) 94,29 %
14.11.2015 10:12 8,9 C 11,1 C 8,3 C 84 % 0 lf 1025,4 hPa 0,0 l/m 2 min 0 min 188 W/m 33,5 km/h (5 Bft) 96,43 %
14.11.2015 10:14 9,0 C 11,7 C 8,3 C 84 % 0 lf 1025,4 hPa 0,0 l/m 2 min 0 min 185 W/m 29,3 km/h (5 Bft) 95,74 %
14.11.2015 10:16 9,0 C 11,1 C 8,3 C 84 % 0 lf 1025,5 hPa 0,0 l/m 2 min 0 min 185 W/m 41,8 km/h (6 Bft) 95,92 %
14.11.2015 10:18 9,1 C 11,7 C 8,3 C 84 % 0 lf 1025,4 hPa 0,0 l/m 2 min 0 min 181 W/m 27,2 km/h (4 Bft) 95,74 %
14.11.2015 10:20 9,1 C 11,1 C 8,3 C 84 % 0 lf 1025,4 hPa 0,0 l/m 2 min 0 min 187 W/m 33,5 km/h (5 Bft) 94,29 %
14.11.2015 10:22 9,2 C 11,1 C 8,3 C 84 % 0 lf 1025,4 hPa 0,0 l/m 2 min 0 min 180 W/m 33,5 km/h (5 Bft) 94,64 %
14.11.2015 10:24 9,2 C 11,7 C 8,9 C 84 % 0 lf 1025,4 hPa 0,0 l/m 2 min 0 min 192 W/m 35,6 km/h (5 Bft) 93,62 %
14.11.2015 10:26 9,2 C 11,1 C 8,9 C 83 % 0 lf 1025,4 hPa 0,0 l/m 2 min 0 min 202 W/m 41,8 km/h (6 Bft) 95,92 %
14.11.2015 10:28 9,3 C 11,7 C 8,9 C 83 % 0 lf 1025,4 hPa 0,0 l/m 2 min 0 min 214 W/m 35,6 km/h (5 Bft) 95,74 %
14.11.2015 10:30 9,3 C 12,2 C 8,9 C 83 % 0 lf 1025,4 hPa 0,0 l/m 2 min 0 min 214 W/m 39,7 km/h (6 Bft) 94,44 %
14.11.2015 10:32 9,3 C 12,2 C 8,9 C 83 % 0 lf 1025,4 hPa 0,0 l/m 2 min 0 min 216 W/m 33,5 km/h (5 Bft) 97,83 %
14.11.2015 10:34 9,4 C 12,2 C 8,9 C 83 % 0 lf 1025,4 hPa 0,0 l/m 2 min 0 min 213 W/m 39,7 km/h (6 Bft) 94,64 %
14.11.2015 10:36 9,4 C 12,2 C 8,9 C 83 % 0 lf 1025,4 hPa 0,0 l/m 2 min 0 min 224 W/m 27,2 km/h (4 Bft) 96,00 %
14.11.2015 10:38 9,4 C 12,2 C 8,9 C 83 % 0 lf 1025,4 hPa 0,0 l/m 2 min 0 min 230 W/m 35,6 km/h (5 Bft) 95,92 %
14.11.2015 10:40 9,5 C 12,8 C 8,9 C 83 % 0 lf 1025,4 hPa 0,0 l/m 2 min 0 min 249 W/m 31,4 km/h (5 Bft) 88,89 %
14.11.2015 10:42 9,6 C 12,8 C 8,9 C 83 % 0 lf 1025,4 hPa 0,0 l/m 2 min 0 min 227 W/m 37,7 km/h (5 Bft) 95,74 %
14.11.2015 10:44 9,6 C 12,2 C 8,9 C 83 % 0 lf 1025,5 hPa 0,0 l/m 2 min 0 min 189 W/m 35,6 km/h (5 Bft) 95,65 %
14.11.2015 10:46 9,6 C 11,7 C 8,9 C 83 % 0 lf 1025,4 hPa 0,0 l/m 2 min 0 min 180 W/m 27,2 km/h (4 Bft) 96,43 %
14.11.2015 10:48 9,7 C 11,7 C 8,9 C 83 % 0 lf 1025,4 hPa 0,0 l/m 2 min 0 min 169 W/m 33,5 km/h (5 Bft) 100,00 %
14.11.2015 10:50 9,7 C 11,7 C 8,9 C 83 % 0 lf 1025,4 hPa 0,0 l/m 2 min 0 min 176 W/m 27,2 km/h (4 Bft) 97,14 %
14.11.2015 10:52 9,7 C 11,7 C 8,9 C 83 % 0 lf 1025,4 hPa 0,0 l/m 2 min 0 min 165 W/m 27,2 km/h (4 Bft) 100,00 %
14.11.2015 10:54 9,7 C 11,7 C 8,9 C 83 % 0 lf 1025,4 hPa 0,0 l/m 2 min 0 min 159 W/m 29,3 km/h (5 Bft) 100,00 %
14.11.2015 10:56 9,7 C 11,1 C 8,9 C 83 % 0 lf 1025,4 hPa 0,0 l/m 2 min 0 min 161 W/m 39,7 km/h (6 Bft) 100,00 %
14.11.2015 10:58 9,7 C 11,1 C 8,9 C 82 % 0 lf 1025,5 hPa 0,0 l/m 2 min 0 min 165 W/m 31,4 km/h (5 Bft) 100,00 %
14.11.2015 11:00 9,8 C 11,1 C 8,9 C 82 % 0 lf 1025,4 hPa 0,0 l/m 2 min 0 min 172 W/m 33,5 km/h (5 Bft) 97,87 %
14.11.2015 11:02 9,8 C 11,7 C 9,4 C 82 % 0 lf 1025,4 hPa 0,0 l/m 2 min 0 min 178 W/m 33,5 km/h (5 Bft) 96,36 %
14.11.2015 11:04 9,8 C 11,7 C 9,4 C 82 % 0 lf 1025,4 hPa 0,0 l/m 2 min 0 min 181 W/m 31,4 km/h (5 Bft) 100,00 %
14.11.2015 11:06 9,8 C 11,1 C 9,4 C 82 % 0 lf 1025,5 hPa 0,0 l/m 2 min 0 min 182 W/m 33,5 km/h (5 Bft) 100,00 %
14.11.2015 11:08 9,8 C 11,7 C 9,4 C 82 % 0 lf 1025,5 hPa 0,0 l/m 2 min 0 min 178 W/m 39,7 km/h (6 Bft) 100,00 %
14.11.2015 11:10 9,8 C 11,7 C 9,4 C 82 % 0 lf 1025,4 hPa 0,0 l/m 2 min 0 min 174 W/m 31,4 km/h (5 Bft) 100,00 %
14.11.2015 11:12 9,8 C 11,7 C 9,4 C 82 % 0 lf 1025,5 hPa 0,0 l/m 2 min 0 min 171 W/m 27,2 km/h (4 Bft) 100,00 %
14.11.2015 11:14 9,9 C 11,7 C 9,4 C 82 % 0 lf 1025,4 hPa 0,0 l/m 0 min 0 min 163 W/m 37,7 km/h (5 Bft) 98,18 %
14.11.2015 11:16 9,9 C 11,1 C 9,4 C 81 % 0 lf 1025,6 hPa 0,0 l/m 0 min 0 min 157 W/m 39,7 km/h (6 Bft) 97,37 %
14.11.2015 11:18 9,9 C 11,1 C 8,9 C 81 % 0 lf 1025,6 hPa 0,0 l/m 0 min 0 min 154 W/m 37,7 km/h (5 Bft) 95,74 %
14.11.2015 11:20 9,9 C 11,1 C 9,4 C 81 % 0 lf 1025,6 hPa 0,0 l/m 0 min 0 min 154 W/m 27,2 km/h (4 Bft) 100,00 %
14.11.2015 11:22 9,9 C 11,1 C 9,4 C 81 % 0 lf 1025,5 hPa 0,0 l/m 0 min 0 min 156 W/m 25,1 km/h (4 Bft) 92,00 %
14.11.2015 11:24 9,9 C 11,1 C 9,4 C 82 % 0 lf 1025,5 hPa 0,0 l/m 0 min 0 min 159 W/m 20,9 km/h (4 Bft) 100,00 %
14.11.2015 11:26 9,9 C 11,1 C 9,4 C 82 % 0 lf 1025,5 hPa 0,0 l/m 0 min 0 min 160 W/m 31,4 km/h (5 Bft) 100,00 %
14.11.2015 11:28 9,9 C 11,7 C 9,4 C 82 % 0 lf 1025,5 hPa 0,0 l/m 0 min 0 min 159 W/m 29,3 km/h (5 Bft) 100,00 %
14.11.2015 11:30 9,9 C 11,7 C 9,4 C 81 % 0 lf 1025,5 hPa 0,0 l/m 0 min 0 min 163 W/m 33,5 km/h (5 Bft) 98,00 %
14.11.2015 11:32 9,9 C 11,7 C 9,4 C 81 % 0 lf 1025,5 hPa 0,0 l/m 2 min 0 min 170 W/m 35,6 km/h (5 Bft) 97,87 %
14.11.2015 11:34 9,9 C 11,7 C 9,4 C 81 % 0 lf 1025,5 hPa 0,0 l/m 2 min 0 min 171 W/m 33,5 km/h (5 Bft) 97,87 %
14.11.2015 11:36 10,0 C 11,7 C 9,4 C 81 % 0 lf 1025,5 hPa 0,0 l/m 0 min 0 min 169 W/m 25,1 km/h (4 Bft) 100,00 %
14.11.2015 11:38 10,0 C 11,1 C 9,4 C 81 % 0 lf 1025,5 hPa 0,0 l/m 0 min 0 min 164 W/m 33,5 km/h (5 Bft) 100,00 %
14.11.2015 11:40 10,0 C 11,7 C 9,4 C 81 % 0 lf 1025,5 hPa 0,0 l/m 0 min 0 min 163 W/m 27,2 km/h (4 Bft) 100,00 %
14.11.2015 11:42 10,0 C 11,7 C 9,4 C 81 % 0 lf 1025,5 hPa 0,0 l/m 0 min 0 min 164 W/m 20,9 km/h (4 Bft) 100,00 %
14.11.2015 11:44 10,1 C 11,7 C 9,4 C 81 % 0 lf 1025,4 hPa 0,0 l/m 0 min 0 min 170 W/m 29,3 km/h (5 Bft) 100,00 %
14.11.2015 11:46 10,1 C 11,7 C 9,4 C 81 % 0 lf 1025,4 hPa 0,0 l/m 2 min 0 min 175 W/m 23,0 km/h (4 Bft) 97,73 %
14.11.2015 11:48 10,1 C 11,7 C 9,4 C 81 % 0 lf 1025,4 hPa 0,0 l/m 2 min 0 min 179 W/m 25,1 km/h (4 Bft) 100,00 %
14.11.2015 11:50 10,1 C 11,7 C 9,4 C 81 % 0 lf 1025,4 hPa 0,0 l/m 2 min 0 min 179 W/m 27,2 km/h (4 Bft) 100,00 %
14.11.2015 11:52 10,1 C 11,7 C 9,4 C 81 % 0 lf 1025,4 hPa 0,0 l/m 2 min 0 min 178 W/m 20,9 km/h (4 Bft) 100,00 %
14.11.2015 11:54 10,2 C 11,7 C 10,0 C 81 % 0 lf 1025,4 hPa 0,0 l/m 2 min 0 min 179 W/m 29,3 km/h (5 Bft) 95,45 %
14.11.2015 11:56 10,2 C 11,7 C 9,4 C 81 % 0 lf 1025,4 hPa 0,0 l/m 2 min 0 min 176 W/m 33,5 km/h (5 Bft) 98,00 %
14.11.2015 11:58 10,2 C 11,7 C 9,4 C 81 % 0 lf 1025,4 hPa 0,0 l/m 0 min 0 min 166 W/m 27,2 km/h (4 Bft) 100,00 %
14.11.2015 12:00 10,2 C 11,7 C 10,0 C 81 % 0 lf 1025,3 hPa 0,0 l/m 0 min 0 min 154 W/m 20,9 km/h (4 Bft) 95,74 %
14.11.2015 12:02 10,3 C 11,7 C 10,0 C 81 % 0 lf 1025,2 hPa 0,0 l/m 0 min 0 min 156 W/m 23,0 km/h (4 Bft) 100,00 %
14.11.2015 12:04 10,3 C 11,7 C 10,0 C 81 % 0 lf 1025,2 hPa 0,0 l/m 0 min 0 min 155 W/m 29,3 km/h (5 Bft) 96,00 %
14.11.2015 12:06 10,3 C 11,7 C 9,4 C 81 % 0 lf 1025,3 hPa 0,0 l/m 0 min 0 min 155 W/m 27,2 km/h (4 Bft) 95,74 %
14.11.2015 12:08 10,3 C 11,7 C 9,4 C 81 % 0 lf 1025,2 hPa 0,0 l/m 0 min 0 min 154 W/m 29,3 km/h (5 Bft) 97,87 %
14.11.2015 12:10 10,3 C 11,1 C 9,4 C 81 % 0 lf 1025,2 hPa 0,0 l/m 0 min 0 min 146 W/m 31,4 km/h (5 Bft) 97,73 %
14.11.2015 12:12 10,3 C 11,1 C 9,4 C 81 % 0 lf 1025,2 hPa 0,0 l/m 0 min 0 min 142 W/m 25,1 km/h (4 Bft) 95,92 %
14.11.2015 12:14 10,3 C 11,1 C 9,4 C 81 % 0 lf 1025,2 hPa 0,0 l/m 0 min 0 min 123 W/m 31,4 km/h (5 Bft) 97,92 %
14.11.2015 12:16 10,3 C 11,1 C 9,4 C 81 % 0 lf 1025,2 hPa 0,0 l/m 0 min 0 min 130 W/m 29,3 km/h (5 Bft) 93,48 %
14.11.2015 12:18 10,3 C 11,1 C 9,4 C 81 % 0 lf 1025,1 hPa 0,0 l/m 0 min 0 min 128 W/m 25,1 km/h (4 Bft) 95,45 %
14.11.2015 12:20 10,3 C 11,1 C 9,4 C 81 % 0 lf 1025,1 hPa 0,0 l/m 0 min 0 min 127 W/m 31,4 km/h (5 Bft) 96,00 %
14.11.2015 12:22 10,3 C 11,1 C 9,4 C 81 % 0 lf 1025,2 hPa 0,0 l/m 0 min 0 min 122 W/m 39,7 km/h (6 Bft) 93,62 %
14.11.2015 12:24 10,3 C 11,1 C 9,4 C 81 % 0 lf 1025,1 hPa 0,0 l/m 0 min 0 min 106 W/m 25,1 km/h (4 Bft) 91,49 %
14.11.2015 12:26 10,3 C 11,1 C 9,4 C 81 % 0 lf 1025,0 hPa 0,0 l/m 0 min 0 min 110 W/m 33,5 km/h (5 Bft) 95,35 %
14.11.2015 12:28 10,3 C 11,1 C 9,4 C 81 % 0 lf 1025,0 hPa 0,0 l/m 0 min 0 min 116 W/m 25,1 km/h (4 Bft) 91,49 %
14.11.2015 12:30 10,3 C 11,1 C 9,4 C 81 % 0 lf 1025,0 hPa 0,0 l/m 0 min 0 min 106 W/m 27,2 km/h (4 Bft) 94,00 %
14.11.2015 12:32 10,3 C 11,1 C 9,4 C 81 % 0 lf 1025,0 hPa 0,0 l/m 0 min 0 min 109 W/m 33,5 km/h (5 Bft) 91,49 %
14.11.2015 12:34 10,3 C 11,1 C 9,4 C 81 % 0 lf 1024,9 hPa 0,0 l/m 0 min 0 min 111 W/m 29,3 km/h (5 Bft) 89,36 %
14.11.2015 12:36 10,3 C 11,1 C 9,4 C 81 % 0 lf 1025,0 hPa 0,0 l/m 0 min 0 min 106 W/m 18,8 km/h (3 Bft) 92,45 %
14.11.2015 12:38 10,3 C 11,1 C 9,4 C 81 % 0 lf 1024,9 hPa 0,0 l/m 0 min 0 min 103 W/m 37,7 km/h (5 Bft) 89,47 %
14.11.2015 12:40 10,3 C 11,1 C 9,4 C 81 % 0 lf 1024,9 hPa 0,0 l/m 0 min 0 min 94 W/m 35,6 km/h (5 Bft) 87,76 %
14.11.2015 12:42 10,3 C 11,1 C 9,4 C 81 % 0 lf 1024,9 hPa 0,0 l/m 0 min 0 min 107 W/m 27,2 km/h (4 Bft) 91,49 %
14.11.2015 12:44 10,3 C 11,1 C 9,4 C 81 % 0 lf 1024,9 hPa 0,0 l/m 0 min 0 min 110 W/m 27,2 km/h (4 Bft) 91,49 %
14.11.2015 12:46 10,3 C 11,1 C 9,4 C 81 % 0 lf 1024,9 hPa 0,0 l/m 0 min 0 min 106 W/m 37,7 km/h (5 Bft) 91,49 %
14.11.2015 12:48 10,3 C 11,1 C 9,4 C 81 % 0 lf 1024,9 hPa 0,0 l/m 0 min 0 min 110 W/m 33,5 km/h (5 Bft) 91,49 %
14.11.2015 12:50 10,3 C 11,1 C 9,4 C 81 % 0 lf 1024,8 hPa 0,0 l/m 0 min 0 min 114 W/m 27,2 km/h (4 Bft) 91,30 %
14.11.2015 12:52 10,3 C 11,1 C 9,4 C 81 % 0 lf 1024,9 hPa 0,0 l/m 0 min 0 min 113 W/m 20,9 km/h (4 Bft) 93,62 %
14.11.2015 12:54 10,3 C 11,1 C 9,4 C 81 % 0 lf 1024,9 hPa 0,0 l/m 0 min 0 min 117 W/m 39,7 km/h (6 Bft) 95,74 %
14.11.2015 12:56 10,3 C 11,1 C 9,4 C 81 % 0 lf 1024,8 hPa 0,0 l/m 0 min 0 min 117 W/m 35,6 km/h (5 Bft) 95,74 %
14.11.2015 12:58 10,3 C 11,1 C 9,4 C 81 % 0 lf 1024,8 hPa 0,0 l/m 0 min 0 min 114 W/m 27,2 km/h (4 Bft) 93,62 %
14.11.2015 13:00 10,3 C 11,1 C 9,4 C 81 % 0 lf 1024,8 hPa 0,0 l/m 0 min 0 min 118 W/m 23,0 km/h (4 Bft) 96,23 %
14.11.2015 13:02 10,3 C 11,1 C 9,4 C 81 % 0 lf 1024,8 hPa 0,0 l/m 0 min 0 min 123 W/m 41,8 km/h (6 Bft) 94,74 %
14.11.2015 13:04 10,3 C 11,1 C 9,4 C 81 % 0 lf 1024,8 hPa 0,0 l/m 0 min 0 min 123 W/m 33,5 km/h (5 Bft) 95,92 %
14.11.2015 13:06 10,3 C 11,1 C 9,4 C 81 % 0 lf 1024,8 hPa 0,0 l/m 0 min 0 min 123 W/m 33,5 km/h (5 Bft) 95,74 %
14.11.2015 13:08 10,3 C 11,1 C 9,4 C 81 % 0 lf 1024,7 hPa 0,0 l/m 0 min 0 min 122 W/m 39,7 km/h (6 Bft) 92,59 %
14.11.2015 13:10 10,3 C 11,1 C 9,4 C 80 % 0 lf 1024,7 hPa 0,0 l/m 0 min 0 min 125 W/m 29,3 km/h (5 Bft) 97,37 %
14.11.2015 13:12 10,3 C 11,1 C 9,4 C 81 % 0 lf 1024,7 hPa 0,0 l/m 0 min 0 min 125 W/m 37,7 km/h (5 Bft) 95,65 %
14.11.2015 13:14 10,4 C 11,1 C 9,4 C 81 % 0 lf 1024,7 hPa 0,0 l/m 0 min 0 min 125 W/m 23,0 km/h (4 Bft) 91,84 %
14.11.2015 13:16 10,4 C 11,1 C 9,4 C 80 % 0 lf 1024,7 hPa 0,0 l/m 0 min 0 min 125 W/m 33,5 km/h (5 Bft) 93,62 %
14.11.2015 13:18 10,4 C 11,1 C 9,4 C 80 % 0 lf 1024,8 hPa 0,0 l/m 0 min 0 min 121 W/m 29,3 km/h (5 Bft) 94,44 %
14.11.2015 13:20 10,4 C 11,1 C 9,4 C 81 % 0 lf 1024,7 hPa 0,0 l/m 0 min 0 min 122 W/m 31,4 km/h (5 Bft) 96,15 %
14.11.2015 13:22 10,4 C 11,1 C 9,4 C 81 % 0 lf 1024,7 hPa 0,0 l/m 0 min 0 min 121 W/m 29,3 km/h (5 Bft) 95,08 %
14.11.2015 13:24 10,4 C 11,1 C 9,4 C 81 % 0 lf 1024,7 hPa 0,0 l/m 0 min 0 min 120 W/m 27,2 km/h (4 Bft) 98,11 %
14.11.2015 13:26 10,4 C 11,1 C 9,4 C 81 % 0 lf 1024,6 hPa 0,0 l/m 0 min 0 min 120 W/m 43,9 km/h (6 Bft) 94,74 %
14.11.2015 13:28 10,4 C 11,1 C 9,4 C 80 % 0 lf 1024,7 hPa 0,0 l/m 0 min 0 min 122 W/m 31,4 km/h (5 Bft) 97,87 %
14.11.2015 13:30 10,4 C 11,1 C 9,4 C 80 % 0 lf 1024,6 hPa 0,0 l/m 0 min 0 min 126 W/m 29,3 km/h (5 Bft) 100,00 %
14.11.2015 13:32 10,4 C 11,1 C 9,4 C 81 % 0 lf 1024,7 hPa 0,0 l/m 0 min 0 min 127 W/m 29,3 km/h (5 Bft) 97,96 %
14.11.2015 13:34 10,4 C 11,1 C 9,4 C 80 % 0 lf 1024,7 hPa 0,0 l/m 0 min 0 min 128 W/m 33,5 km/h (5 Bft) 95,74 %
14.11.2015 13:36 10,5 C 11,1 C 10,0 C 80 % 0 lf 1024,7 hPa 0,0 l/m 0 min 0 min 125 W/m 31,4 km/h (5 Bft) 100,00 %
14.11.2015 13:38 10,5 C 11,1 C 10,0 C 81 % 0 lf 1024,7 hPa 0,0 l/m 0 min 0 min 127 W/m 29,3 km/h (5 Bft) 96,30 %
14.11.2015 13:40 10,5 C 11,7 C 10,0 C 80 % 0 lf 1024,7 hPa 0,0 l/m 0 min 0 min 132 W/m 27,2 km/h (4 Bft) 97,37 %
14.11.2015 13:42 10,5 C 11,7 C 10,0 C 81 % 0 lf 1024,7 hPa 0,0 l/m 0 min 0 min 132 W/m 37,7 km/h (5 Bft) 100,00 %
14.11.2015 13:44 10,6 C 11,7 C 10,0 C 81 % 0 lf 1024,7 hPa 0,0 l/m 0 min 0 min 134 W/m 25,1 km/h (4 Bft) 97,87 %
14.11.2015 13:46 10,6 C 11,7 C 10,0 C 81 % 0 lf 1024,6 hPa 0,0 l/m 0 min 0 min 131 W/m 16,7 km/h (3 Bft) 94,34 %
14.11.2015 13:48 10,6 C 11,7 C 10,0 C 81 % 0 lf 1024,6 hPa 0,0 l/m 0 min 0 min 125 W/m 31,4 km/h (5 Bft) 97,37 %
14.11.2015 13:50 10,6 C 11,7 C 10,0 C 81 % 0 lf 1024,6 hPa 0,0 l/m 0 min 0 min 121 W/m 31,4 km/h (5 Bft) 97,96 %
14.11.2015 13:52 10,6 C 11,7 C 10,0 C 81 % 0 lf 1024,5 hPa 0,0 l/m 0 min 0 min 126 W/m 27,2 km/h (4 Bft) 100,00 %
14.11.2015 13:54 10,6 C 11,7 C 10,0 C 81 % 0 lf 1024,4 hPa 0,0 l/m 0 min 0 min 136 W/m 29,3 km/h (5 Bft) 98,15 %
14.11.2015 13:56 10,6 C 11,7 C 10,0 C 81 % 0 lf 1024,4 hPa 0,0 l/m 0 min 0 min 142 W/m 27,2 km/h (4 Bft) 100,00 %
14.11.2015 13:58 10,6 C 11,7 C 10,0 C 80 % 0 lf 1024,4 hPa 0,0 l/m 0 min 0 min 140 W/m 29,3 km/h (5 Bft) 100,00 %
14.11.2015 14:00 10,7 C 11,7 C 10,0 C 80 % 0 lf 1024,4 hPa 0,0 l/m 0 min 0 min 136 W/m 35,6 km/h (5 Bft) 100,00 %
14.11.2015 14:02 10,7 C 11,7 C 10,0 C 80 % 0 lf 1024,3 hPa 0,0 l/m 0 min 0 min 131 W/m 39,7 km/h (6 Bft) 98,15 %
14.11.2015 14:04 10,7 C 11,7 C 10,0 C 80 % 0 lf 1024,3 hPa 0,0 l/m 0 min 0 min 117 W/m 27,2 km/h (4 Bft) 97,37 %
14.11.2015 14:06 10,7 C 11,7 C 10,0 C 80 % 0 lf 1024,3 hPa 0,0 l/m 0 min 0 min 106 W/m 20,9 km/h (4 Bft) 100,00 %
14.11.2015 14:08 10,7 C 11,7 C 10,0 C 80 % 0 lf 1024,3 hPa 0,0 l/m 0 min 0 min 101 W/m 35,6 km/h (5 Bft) 100,00 %
14.11.2015 14:10 10,7 C 11,7 C 10,0 C 80 % 0 lf 1024,3 hPa 0,0 l/m 0 min 0 min 104 W/m 20,9 km/h (4 Bft) 96,23 %
14.11.2015 14:12 10,7 C 11,7 C 10,0 C 80 % 0 lf 1024,2 hPa 0,0 l/m 0 min 0 min 109 W/m 27,2 km/h (4 Bft) 97,37 %
14.11.2015 14:14 10,7 C 11,7 C 10,0 C 80 % 1 lf 1024,2 hPa 0,0 l/m 0 min 0 min 109 W/m 31,4 km/h (5 Bft) 97,96 %
14.11.2015 14:16 10,7 C 11,7 C 10,0 C 80 % 0 lf 1024,3 hPa 0,0 l/m 0 min 0 min 106 W/m 23,0 km/h (4 Bft) 100,00 %
14.11.2015 14:18 10,7 C 11,1 C 10,0 C 80 % 2 lf 1024,2 hPa 0,0 l/m 0 min 2 min 110 W/m 27,2 km/h (4 Bft) 94,44 %
14.11.2015 14:20 10,7 C 11,1 C 10,0 C 80 % 4 lf 1024,1 hPa 0,0 l/m 0 min 2 min 104 W/m 33,5 km/h (5 Bft) 97,37 %
14.11.2015 14:22 10,7 C 11,1 C 10,0 C 80 % 7 lf 1024,2 hPa 0,0 l/m 0 min 2 min 103 W/m 23,0 km/h (4 Bft) 95,92 %
14.11.2015 14:24 10,7 C 11,1 C 9,4 C 81 % 4 lf 1024,2 hPa 0,0 l/m 0 min 2 min 112 W/m 29,3 km/h (5 Bft) 97,83 %
14.11.2015 14:26 10,7 C 11,1 C 9,4 C 81 % 3 lf 1024,1 hPa 0,0 l/m 0 min 2 min 126 W/m 35,6 km/h (5 Bft) 97,87 %
14.11.2015 14:28 10,7 C 11,7 C 9,4 C 81 % 5 lf 1024,1 hPa 0,0 l/m 0 min 2 min 122 W/m 29,3 km/h (5 Bft) 96,30 %
14.11.2015 14:30 10,7 C 11,1 C 9,4 C 81 % 4 lf 1024,1 hPa 0,0 l/m 0 min 2 min 105 W/m 31,4 km/h (5 Bft) 97,37 %
14.11.2015 14:32 10,7 C 11,1 C 9,4 C 82 % 2 lf 1024,1 hPa 0,0 l/m 0 min 2 min 102 W/m 29,3 km/h (5 Bft) 95,92 %
14.11.2015 14:34 10,7 C 11,1 C 9,4 C 82 % 2 lf 1024,1 hPa 0,0 l/m 0 min 2 min 103 W/m 33,5 km/h (5 Bft) 95,65 %
14.11.2015 14:36 10,7 C 11,1 C 8,9 C 82 % 1 lf 1024,1 hPa 0,0 l/m 0 min 0 min 94 W/m 27,2 km/h (4 Bft) 98,15 %
14.11.2015 14:38 10,7 C 11,1 C 8,9 C 82 % 0 lf 1024,1 hPa 0,0 l/m 0 min 0 min 93 W/m 23,0 km/h (4 Bft) 95,74 %
14.11.2015 14:40 10,7 C 11,1 C 8,9 C 82 % 0 lf 1024,1 hPa 0,0 l/m 0 min 0 min 95 W/m 23,0 km/h (4 Bft) 94,74 %
14.11.2015 14:42 10,6 C 11,1 C 8,9 C 82 % 0 lf 1024,0 hPa 0,0 l/m 0 min 0 min 86 W/m 23,0 km/h (4 Bft) 93,88 %
14.11.2015 14:44 10,6 C 11,1 C 8,9 C 82 % 0 lf 1024,0 hPa 0,0 l/m 0 min 0 min 70 W/m 25,1 km/h (4 Bft) 91,49 %
14.11.2015 14:46 10,6 C 11,1 C 9,4 C 82 % 0 lf 1023,9 hPa 0,0 l/m 0 min 0 min 59 W/m 31,4 km/h (5 Bft) 95,65 %
14.11.2015 14:48 10,6 C 10,6 C 9,4 C 82 % 1 lf 1024,0 hPa 0,0 l/m 0 min 2 min 54 W/m 33,5 km/h (5 Bft) 98,15 %
14.11.2015 14:50 10,5 C 10,6 C 9,4 C 82 % 2 lf 1023,9 hPa 0,0 l/m 0 min 2 min 50 W/m 25,1 km/h (4 Bft) 91,49 %
14.11.2015 14:52 10,5 C 10,6 C 8,9 C 82 % 8 lf 1023,8 hPa 0,0 l/m 0 min 2 min 40 W/m 29,3 km/h (5 Bft) 100,00 %
14.11.2015 14:54 10,4 C 10,6 C 8,9 C 83 % 12 lf 1023,9 hPa 0,0 l/m 0 min 2 min 36 W/m 27,2 km/h (4 Bft) 100,00 %
14.11.2015 14:56 10,4 C 10,6 C 8,9 C 83 % 14 lf 1023,9 hPa 0,0 l/m 0 min 2 min 48 W/m 20,9 km/h (4 Bft) 89,36 %
14.11.2015 14:58 10,4 C 10,0 C 8,9 C 83 % 14 lf 1023,9 hPa 0,0 l/m 0 min 2 min 49 W/m 20,9 km/h (4 Bft) 100,00 %
14.11.2015 15:00 10,4 C 10,0 C 8,9 C 83 % 14 lf 1023,9 hPa 0,0 l/m 0 min 2 min 44 W/m 29,3 km/h (5 Bft) 95,74 %
14.11.2015 15:02 10,3 C 10,0 C 8,9 C 84 % 13 lf 1023,8 hPa 0,0 l/m 0 min 2 min 41 W/m 31,4 km/h (5 Bft) 96,30 %
14.11.2015 15:04 10,3 C 10,0 C 8,3 C 84 % 14 lf 1023,8 hPa 0,0 l/m 0 min 2 min 38 W/m 23,0 km/h (4 Bft) 95,74 %
14.11.2015 15:06 10,3 C 10,0 C 8,3 C 84 % 15 lf 1023,9 hPa 0,0 l/m 0 min 2 min 33 W/m 29,3 km/h (5 Bft) 97,37 %
14.11.2015 15:08 10,2 C 9,4 C 8,3 C 84 % 15 lf 1023,8 hPa 0,0 l/m 0 min 2 min 27 W/m 27,2 km/h (4 Bft) 97,96 %
14.11.2015 15:10 10,2 C 9,4 C 7,8 C 85 % 15 lf 1023,8 hPa 0,0 l/m 0 min 2 min 23 W/m 20,9 km/h (4 Bft) 97,83 %
14.11.2015 15:12 10,1 C 8,9 C 7,8 C 85 % 15 lf 1023,8 hPa 0,0 l/m 0 min 2 min 19 W/m 16,7 km/h (3 Bft) 95,74 %
14.11.2015 15:14 10,1 C 8,9 C 7,8 C 85 % 15 lf 1023,7 hPa 0,0 l/m 0 min 2 min 17 W/m 14,6 km/h (3 Bft) 98,15 %
14.11.2015 15:16 10,1 C 8,9 C 7,8 C 85 % 15 lf 1023,7 hPa 0,0 l/m 0 min 2 min 15 W/m 16,7 km/h (3 Bft) 97,37 %
14.11.2015 15:18 10,0 C 8,9 C 7,8 C 86 % 15 lf 1023,8 hPa 0,0 l/m 0 min 2 min 14 W/m 14,6 km/h (3 Bft) 97,87 %
14.11.2015 15:20 10,0 C 8,9 C 7,8 C 86 % 15 lf 1023,7 hPa 0,0 l/m 0 min 2 min 14 W/m 14,6 km/h (3 Bft) 93,88 %
14.11.2015 15:22 9,9 C 8,9 C 7,8 C 86 % 15 lf 1023,6 hPa 0,0 l/m 0 min 2 min 14 W/m 8,4 km/h (2 Bft) 95,65 %
14.11.2015 15:24 9,9 C 8,9 C 7,8 C 86 % 15 lf 1023,6 hPa 0,0 l/m 0 min 2 min 18 W/m 8,4 km/h (2 Bft) 96,30 %
14.11.2015 15:26 9,9 C 8,9 C 7,8 C 87 % 15 lf 1023,6 hPa 0,0 l/m 0 min 2 min 20 W/m 12,6 km/h (3 Bft) 97,37 %
14.11.2015 15:28 9,9 C 8,9 C 7,8 C 87 % 15 lf 1023,6 hPa 0,0 l/m 0 min 2 min 19 W/m 8,4 km/h (2 Bft) 97,83 %
14.11.2015 15:30 9,9 C 8,9 C 7,8 C 87 % 15 lf 1023,6 hPa 0,2 l/m 0 min 2 min 15 W/m 6,3 km/h (2 Bft) 91,84 %
14.11.2015 15:32 9,9 C 8,9 C 7,8 C 87 % 15 lf 1023,5 hPa 0,0 l/m 0 min 2 min 11 W/m 6,3 km/h (2 Bft) 93,62 %
14.11.2015 15:34 9,8 C 8,9 C 7,8 C 87 % 15 lf 1023,6 hPa 0,0 l/m 0 min 2 min 11 W/m 8,4 km/h (2 Bft) 94,34 %
14.11.2015 15:36 9,8 C 8,9 C 7,8 C 88 % 15 lf 1023,5 hPa 0,0 l/m 0 min 2 min 9 W/m 2,1 km/h (1 Bft) 94,74 %
14.11.2015 15:38 9,8 C 8,9 C 7,8 C 88 % 15 lf 1023,5 hPa 0,0 l/m 0 min 2 min 8 W/m 4,2 km/h (1 Bft) 95,92 %
14.11.2015 15:40 9,8 C 8,9 C 7,8 C 88 % 15 lf 1023,5 hPa 0,0 l/m 0 min 2 min 7 W/m 6,3 km/h (2 Bft) 95,74 %
14.11.2015 15:42 9,8 C 8,9 C 7,2 C 88 % 15 lf 1023,5 hPa 0,0 l/m 0 min 2 min 7 W/m 4,2 km/h (1 Bft) 93,62 %
14.11.2015 15:44 9,8 C 8,9 C 7,2 C 88 % 15 lf 1023,5 hPa 0,0 l/m 0 min 2 min 7 W/m 8,4 km/h (2 Bft) 93,62 %
14.11.2015 15:46 9,7 C 8,9 C 7,2 C 88 % 15 lf 1023,5 hPa 0,0 l/m 0 min 2 min 7 W/m 10,5 km/h (2 Bft) 98,11 %
14.11.2015 15:48 9,7 C 8,9 C 7,2 C 88 % 15 lf 1023,7 hPa 0,2 l/m 0 min 2 min 5 W/m 12,6 km/h (3 Bft) 91,49 %
14.11.2015 15:50 9,7 C 8,9 C 7,2 C 88 % 15 lf 1023,6 hPa 0,0 l/m 0 min 2 min 6 W/m 10,5 km/h (2 Bft) 97,87 %
14.11.2015 15:52 9,7 C 8,3 C 7,2 C 89 % 15 lf 1023,5 hPa 0,2 l/m 0 min 2 min 7 W/m 14,6 km/h (3 Bft) 97,37 %
14.11.2015 15:54 9,6 C 8,3 C 7,2 C 89 % 15 lf 1023,5 hPa 0,0 l/m 0 min 2 min 7 W/m 23,0 km/h (4 Bft) 95,92 %
14.11.2015 15:56 9,6 C 8,3 C 7,2 C 89 % 15 lf 1023,4 hPa 0,0 l/m 0 min 2 min 7 W/m 20,9 km/h (4 Bft) 95,65 %
14.11.2015 15:58 9,4 C 8,3 C 7,2 C 89 % 15 lf 1023,4 hPa 0,0 l/m 0 min 2 min 8 W/m 16,7 km/h (3 Bft) 95,74 %
14.11.2015 16:00 9,4 C 8,3 C 7,2 C 89 % 15 lf 1023,4 hPa 0,0 l/m 0 min 2 min 9 W/m 16,7 km/h (3 Bft) 96,30 %
14.11.2015 16:02 9,3 C 8,3 C 7,2 C 90 % 15 lf 1023,4 hPa 0,0 l/m 0 min 2 min 9 W/m 16,7 km/h (3 Bft) 97,37 %
14.11.2015 16:04 9,3 C 8,3 C 7,2 C 90 % 15 lf 1023,4 hPa 0,0 l/m 0 min 2 min 9 W/m 10,5 km/h (2 Bft) 95,92 %
14.11.2015 16:06 9,2 C 8,3 C 7,2 C 90 % 15 lf 1023,4 hPa 0,0 l/m 0 min 2 min 12 W/m 12,6 km/h (3 Bft) 97,87 %
14.11.2015 16:08 9,2 C 8,3 C 7,2 C 90 % 15 lf 1023,3 hPa 0,0 l/m 0 min 2 min 12 W/m 12,6 km/h (3 Bft) 96,23 %
14.11.2015 16:10 9,2 C 8,3 C 7,2 C 90 % 15 lf 1023,3 hPa 0,0 l/m 0 min 2 min 10 W/m 14,6 km/h (3 Bft) 97,87 %
14.11.2015 16:12 9,1 C 7,8 C 7,2 C 90 % 15 lf 1023,2 hPa 0,0 l/m 0 min 0 min 6 W/m 14,6 km/h (3 Bft) 93,62 %
14.11.2015 16:14 9,1 C 7,8 C 7,2 C 90 % 15 lf 1023,2 hPa 0,0 l/m 0 min 2 min 2 W/m 10,5 km/h (2 Bft) 94,74 %
14.11.2015 16:16 9,1 C 7,8 C 7,2 C 90 % 15 lf 1023,2 hPa 0,0 l/m 0 min 2 min 4 W/m 16,7 km/h (3 Bft) 93,88 %
14.11.2015 16:18 9,0 C 7,8 C 7,2 C 90 % 15 lf 1023,2 hPa 0,0 l/m 0 min 2 min 5 W/m 8,4 km/h (2 Bft) 93,62 %
14.11.2015 16:20 9,0 C 7,8 C 7,2 C 90 % 15 lf 1023,2 hPa 0,0 l/m 0 min 2 min 5 W/m 12,6 km/h (3 Bft) 91,30 %
14.11.2015 16:22 8,9 C 7,8 C 7,2 C 91 % 15 lf 1023,1 hPa 0,2 l/m 0 min 2 min 4 W/m 12,6 km/h (3 Bft) 91,49 %
14.11.2015 16:24 8,9 C 7,8 C 7,2 C 91 % 15 lf 1023,1 hPa 0,0 l/m 0 min 2 min 0 W/m 6,3 km/h (2 Bft) 94,44 %
14.11.2015 16:26 8,9 C 7,8 C 7,2 C 91 % 15 lf 1023,1 hPa 0,0 l/m 0 min 2 min 0 W/m 4,2 km/h (1 Bft) 97,37 %
14.11.2015 16:28 8,9 C 7,8 C 7,2 C 91 % 15 lf 1022,9 hPa 0,0 l/m 0 min 2 min 0 W/m 6,3 km/h (2 Bft) 95,92 %
14.11.2015 16:30 8,8 C 7,8 C 7,2 C 91 % 15 lf 1023,1 hPa 0,0 l/m 0 min 0 min 0 W/m 8,4 km/h (2 Bft) 91,49 %
14.11.2015 16:32 8,8 C 7,8 C 7,2 C 91 % 15 lf 1022,9 hPa 0,0 l/m 0 min 0 min 3 W/m 10,5 km/h (2 Bft) 96,23 %
14.11.2015 16:34 8,8 C 7,8 C 7,2 C 91 % 15 lf 1022,8 hPa 0,0 l/m 0 min 0 min 5 W/m 12,6 km/h (3 Bft) 93,62 %
14.11.2015 16:36 8,8 C 8,3 C 7,2 C 91 % 15 lf 1022,8 hPa 0,0 l/m 0 min 0 min 5 W/m 20,9 km/h (4 Bft) 94,74 %
14.11.2015 16:38 8,8 C 8,3 C 7,2 C 91 % 15 lf 1022,8 hPa 0,0 l/m 0 min 0 min 5 W/m 20,9 km/h (4 Bft) 91,84 %
14.11.2015 16:40 8,8 C 8,3 C 7,2 C 92 % 15 lf 1022,7 hPa 0,0 l/m 0 min 0 min 3 W/m 23,0 km/h (4 Bft) 93,62 %
14.11.2015 16:42 8,8 C 8,3 C 7,2 C 92 % 15 lf 1022,7 hPa 0,0 l/m 0 min 0 min 0 W/m 16,7 km/h (3 Bft) 94,34 %
14.11.2015 16:44 8,8 C 8,3 C 7,2 C 92 % 15 lf 1022,7 hPa 0,0 l/m 0 min 0 min 0 W/m 18,8 km/h (3 Bft) 100,00 %
14.11.2015 16:46 8,8 C 8,3 C 7,2 C 92 % 15 lf 1022,7 hPa 0,0 l/m 0 min 2 min 0 W/m 23,0 km/h (4 Bft) 95,92 %
14.11.2015 16:48 8,8 C 8,3 C 7,2 C 92 % 15 lf 1022,7 hPa 0,0 l/m 0 min 2 min 0 W/m 20,9 km/h (4 Bft) 97,87 %
14.11.2015 16:50 8,8 C 8,3 C 7,2 C 93 % 15 lf 1022,7 hPa 0,0 l/m 0 min 0 min 0 W/m 14,6 km/h (3 Bft) 98,15 %
14.11.2015 16:52 8,8 C 8,3 C 7,2 C 93 % 15 lf 1022,7 hPa 0,0 l/m 0 min 0 min 0 W/m 23,0 km/h (4 Bft) 97,83 %
14.11.2015 16:54 8,8 C 8,3 C 7,2 C 93 % 15 lf 1022,7 hPa 0,0 l/m 0 min 0 min 0 W/m 25,1 km/h (4 Bft) 94,74 %
14.11.2015 16:56 8,8 C 8,3 C 7,2 C 93 % 15 lf 1022,6 hPa 0,0 l/m 0 min 0 min 0 W/m 20,9 km/h (4 Bft) 95,92 %
14.11.2015 16:58 8,8 C 8,3 C 7,2 C 93 % 15 lf 1022,6 hPa 0,0 l/m 0 min 0 min 0 W/m 23,0 km/h (4 Bft) 97,87 %
14.11.2015 17:00 8,8 C 8,3 C 7,2 C 93 % 15 lf 1022,6 hPa 0,0 l/m 0 min 0 min 0 W/m 23,0 km/h (4 Bft) 96,30 %
14.11.2015 17:02 8,7 C 8,3 C 7,2 C 93 % 15 lf 1022,6 hPa 0,0 l/m 0 min 0 min 0 W/m 25,1 km/h (4 Bft) 91,67 %
14.11.2015 17:04 8,7 C 8,3 C 7,2 C 93 % 15 lf 1022,6 hPa 0,0 l/m 0 min 0 min 0 W/m 16,7 km/h (3 Bft) 94,12 %
14.11.2015 17:06 8,7 C 8,3 C 7,2 C 93 % 15 lf 1022,6 hPa 0,0 l/m 0 min 0 min 0 W/m 18,8 km/h (3 Bft) 95,24 %
14.11.2015 17:08 8,7 C 8,3 C 7,2 C 93 % 15 lf 1022,6 hPa 0,0 l/m 0 min 0 min 0 W/m 29,3 km/h (5 Bft) 98,04 %
14.11.2015 17:10 8,7 C 8,3 C 7,2 C 93 % 15 lf 1022,6 hPa 0,0 l/m 0 min 0 min 0 W/m 29,3 km/h (5 Bft) 95,74 %
14.11.2015 17:12 8,7 C 8,3 C 7,2 C 93 % 15 lf 1022,5 hPa 0,0 l/m 0 min 2 min 0 W/m 20,9 km/h (4 Bft) 95,35 %
14.11.2015 17:14 8,7 C 8,3 C 7,2 C 93 % 15 lf 1022,4 hPa 0,0 l/m 0 min 2 min 0 W/m 25,1 km/h (4 Bft) 95,74 %
14.11.2015 17:16 8,7 C 8,3 C 7,2 C 93 % 15 lf 1022,5 hPa 0,0 l/m 0 min 2 min 0 W/m 23,0 km/h (4 Bft) 98,04 %
14.11.2015 17:18 8,7 C 8,3 C 7,2 C 93 % 15 lf 1022,4 hPa 0,0 l/m 0 min 2 min 0 W/m 27,2 km/h (4 Bft) 95,65 %
14.11.2015 17:20 8,7 C 8,3 C 7,2 C 93 % 15 lf 1022,4 hPa 0,0 l/m 0 min 0 min 0 W/m 23,0 km/h (4 Bft) 97,87 %
14.11.2015 17:22 8,7 C 8,3 C 7,2 C 93 % 15 lf 1022,4 hPa 0,0 l/m 0 min 0 min 0 W/m 16,7 km/h (3 Bft) 97,67 %
14.11.2015 17:24 8,7 C 8,3 C 7,2 C 93 % 15 lf 1022,3 hPa 0,0 l/m 0 min 2 min 0 W/m 16,7 km/h (3 Bft) 98,04 %
14.11.2015 17:26 8,7 C 8,3 C 7,2 C 93 % 15 lf 1022,2 hPa 0,0 l/m 0 min 2 min 0 W/m 16,7 km/h (3 Bft) 97,67 %
14.11.2015 17:28 8,7 C 8,3 C 7,2 C 93 % 15 lf 1022,3 hPa 0,0 l/m 0 min 2 min 0 W/m 16,7 km/h (3 Bft) 96,08 %
14.11.2015 17:30 8,7 C 8,3 C 7,2 C 93 % 15 lf 1022,2 hPa 0,0 l/m 0 min 2 min 0 W/m 20,9 km/h (4 Bft) 95,24 %
14.11.2015 17:32 8,7 C 8,3 C 7,2 C 93 % 15 lf 1022,3 hPa 0,0 l/m 0 min 2 min 0 W/m 16,7 km/h (3 Bft) 98,04 %
14.11.2015 17:34 8,7 C 8,3 C 7,2 C 93 % 15 lf 1022,3 hPa 0,0 l/m 0 min 0 min 0 W/m 18,8 km/h (3 Bft) 100,00 %
14.11.2015 17:36 8,7 C 8,3 C 7,2 C 93 % 15 lf 1022,2 hPa 0,0 l/m 0 min 2 min 0 W/m 23,0 km/h (4 Bft) 96,00 %
14.11.2015 17:38 8,7 C 8,3 C 7,2 C 94 % 15 lf 1022,2 hPa 0,0 l/m 0 min 2 min 0 W/m 18,8 km/h (3 Bft) 100,00 %
14.11.2015 17:40 8,7 C 8,3 C 7,2 C 94 % 15 lf 1022,2 hPa 0,0 l/m 0 min 2 min 0 W/m 27,2 km/h (4 Bft) 97,87 %
14.11.2015 17:42 8,7 C 8,3 C 7,2 C 94 % 15 lf 1022,2 hPa 0,0 l/m 0 min 2 min 0 W/m 20,9 km/h (4 Bft) 97,67 %
14.11.2015 17:44 8,7 C 8,3 C 7,2 C 94 % 15 lf 1022,1 hPa 0,0 l/m 0 min 2 min 0 W/m 23,0 km/h (4 Bft) 98,00 %
14.11.2015 17:46 8,7 C 8,3 C 7,2 C 94 % 15 lf 1022,2 hPa 0,0 l/m 0 min 2 min 0 W/m 20,9 km/h (4 Bft) 95,74 %
14.11.2015 17:48 8,7 C 8,3 C 7,2 C 94 % 15 lf 1022,2 hPa 0,0 l/m 0 min 2 min 0 W/m 25,1 km/h (4 Bft) 95,74 %
14.11.2015 17:50 8,7 C 8,3 C 7,2 C 94 % 15 lf 1022,3 hPa 0,0 l/m 0 min 2 min 0 W/m 23,0 km/h (4 Bft) 95,45 %
14.11.2015 17:52 8,7 C 8,3 C 7,2 C 94 % 15 lf 1022,2 hPa 0,0 l/m 0 min 2 min 0 W/m 23,0 km/h (4 Bft) 97,96 %
14.11.2015 17:54 8,7 C 8,3 C 7,2 C 94 % 15 lf 1022,2 hPa 0,0 l/m 0 min 2 min 0 W/m 16,7 km/h (3 Bft) 95,74 %
14.11.2015 17:56 8,7 C 8,3 C 7,2 C 94 % 15 lf 1022,2 hPa 0,0 l/m 0 min 2 min 0 W/m 18,8 km/h (3 Bft) 95,74 %
14.11.2015 17:58 8,7 C 8,3 C 7,2 C 94 % 15 lf 1022,2 hPa 0,0 l/m 0 min 2 min 0 W/m 16,7 km/h (3 Bft) 93,18 %
14.11.2015 18:00 8,7 C 8,3 C 7,2 C 94 % 15 lf 1022,1 hPa 0,0 l/m 0 min 2 min 0 W/m 20,9 km/h (4 Bft) 96,00 %
14.11.2015 18:02 8,7 C 8,3 C 7,2 C 94 % 15 lf 1022,1 hPa 0,0 l/m 0 min 2 min 0 W/m 23,0 km/h (4 Bft) 91,49 %
14.11.2015 18:04 8,7 C 8,3 C 7,2 C 94 % 15 lf 1022,0 hPa 0,2 l/m 0 min 2 min 0 W/m 14,6 km/h (3 Bft) 91,49 %
14.11.2015 18:06 8,7 C 8,3 C 7,2 C 94 % 15 lf 1022,0 hPa 0,0 l/m 0 min 2 min 0 W/m 18,8 km/h (3 Bft) 91,30 %
14.11.2015 18:08 8,7 C 8,3 C 7,2 C 94 % 15 lf 1021,9 hPa 0,0 l/m 0 min 2 min 0 W/m 16,7 km/h (3 Bft) 95,45 %
14.11.2015 18:10 8,7 C 8,3 C 7,2 C 94 % 15 lf 1021,9 hPa 0,0 l/m 0 min 2 min 0 W/m 29,3 km/h (5 Bft) 93,62 %
14.11.2015 18:12 8,7 C 8,3 C 7,2 C 94 % 15 lf 1021,9 hPa 0,0 l/m 0 min 2 min 0 W/m 18,8 km/h (3 Bft) 95,74 %
14.11.2015 18:14 8,7 C 8,3 C 7,2 C 94 % 15 lf 1021,8 hPa 0,0 l/m 0 min 2 min 0 W/m 14,6 km/h (3 Bft) 94,00 %
14.11.2015 18:16 8,7 C 8,3 C 7,2 C 94 % 15 lf 1021,8 hPa 0,0 l/m 0 min 2 min 0 W/m 18,8 km/h (3 Bft) 95,65 %
14.11.2015 18:18 8,7 C 8,3 C 7,2 C 94 % 15 lf 1021,7 hPa 0,0 l/m 0 min 2 min 0 W/m 18,8 km/h (3 Bft) 93,62 %
14.11.2015 18:20 8,7 C 8,3 C 7,2 C 94 % 15 lf 1021,7 hPa 0,0 l/m 0 min 2 min 0 W/m 20,9 km/h (4 Bft) 95,74 %
14.11.2015 18:22 8,7 C 8,3 C 7,2 C 94 % 15 lf 1021,7 hPa 0,0 l/m 0 min 2 min 0 W/m 18,8 km/h (3 Bft) 91,49 %
14.11.2015 18:24 8,7 C 8,3 C 7,2 C 94 % 15 lf 1021,6 hPa 0,0 l/m 0 min 2 min 0 W/m 18,8 km/h (3 Bft) 95,45 %
14.11.2015 18:26 8,7 C 8,3 C 7,2 C 94 % 15 lf 1021,6 hPa 0,0 l/m 0 min 2 min 0 W/m 16,7 km/h (3 Bft) 98,00 %
14.11.2015 18:28 8,7 C 8,3 C 7,2 C 94 % 15 lf 1021,5 hPa 0,0 l/m 0 min 2 min 0 W/m 14,6 km/h (3 Bft) 97,83 %
14.11.2015 18:30 8,7 C 8,3 C 7,2 C 94 % 15 lf 1021,5 hPa 0,0 l/m 0 min 2 min 0 W/m 20,9 km/h (4 Bft) 95,74 %
14.11.2015 18:32 8,7 C 8,3 C 7,2 C 94 % 15 lf 1021,4 hPa 0,2 l/m 0 min 2 min 0 W/m 27,2 km/h (4 Bft) 95,74 %
14.11.2015 18:34 8,7 C 8,3 C 7,2 C 94 % 15 lf 1021,4 hPa 0,0 l/m 0 min 2 min 0 W/m 25,1 km/h (4 Bft) 95,74 %
14.11.2015 18:36 8,7 C 8,3 C 7,2 C 94 % 15 lf 1021,3 hPa 0,0 l/m 0 min 2 min 0 W/m 23,0 km/h (4 Bft) 95,74 %
14.11.2015 18:38 8,7 C 8,3 C 7,2 C 94 % 15 lf 1021,3 hPa 0,0 l/m 0 min 2 min 0 W/m 20,9 km/h (4 Bft) 95,74 %
14.11.2015 18:40 8,7 C 8,3 C 7,2 C 94 % 15 lf 1021,3 hPa 0,0 l/m 0 min 2 min 0 W/m 18,8 km/h (3 Bft) 97,83 %
14.11.2015 18:42 8,7 C 8,3 C 7,2 C 94 % 15 lf 1021,3 hPa 0,0 l/m 0 min 2 min 0 W/m 20,9 km/h (4 Bft) 95,45 %
14.11.2015 18:44 8,7 C 8,3 C 7,2 C 94 % 15 lf 1021,3 hPa 0,0 l/m 0 min 2 min 0 W/m 16,7 km/h (3 Bft) 94,00 %
14.11.2015 18:46 8,7 C 8,3 C 7,2 C 95 % 15 lf 1021,2 hPa 0,0 l/m 0 min 2 min 0 W/m 16,7 km/h (3 Bft) 95,74 %
14.11.2015 18:48 8,7 C 8,3 C 7,2 C 95 % 15 lf 1021,2 hPa 0,0 l/m 0 min 2 min 0 W/m 20,9 km/h (4 Bft) 95,74 %
14.11.2015 18:50 8,7 C 8,3 C 7,2 C 95 % 15 lf 1021,3 hPa 0,0 l/m 0 min 2 min 0 W/m 16,7 km/h (3 Bft) 95,74 %
14.11.2015 18:52 8,7 C 8,3 C 7,2 C 95 % 15 lf 1021,2 hPa 0,0 l/m 0 min 0 min 0 W/m 20,9 km/h (4 Bft) 97,83 %
14.11.2015 18:54 8,7 C 8,3 C 7,2 C 95 % 15 lf 1021,2 hPa 0,0 l/m 0 min 0 min 0 W/m 25,1 km/h (4 Bft) 95,45 %
14.11.2015 18:56 8,7 C 8,3 C 7,2 C 95 % 15 lf 1021,2 hPa 0,0 l/m 0 min 2 min 0 W/m 16,7 km/h (3 Bft) 97,87 %
14.11.2015 18:58 8,7 C 8,3 C 7,2 C 95 % 15 lf 1021,2 hPa 0,0 l/m 0 min 0 min 0 W/m 16,7 km/h (3 Bft) 93,62 %
14.11.2015 19:00 8,7 C 8,3 C 7,2 C 95 % 15 lf 1021,0 hPa 0,0 l/m 0 min 0 min 0 W/m 20,9 km/h (4 Bft) 98,00 %
14.11.2015 19:02 8,7 C 8,3 C 7,2 C 95 % 15 lf 1021,1 hPa 0,0 l/m 0 min 2 min 0 W/m 23,0 km/h (4 Bft) 95,74 %
14.11.2015 19:04 8,7 C 8,3 C 7,2 C 95 % 15 lf 1021,0 hPa 0,0 l/m 0 min 2 min 0 W/m 23,0 km/h (4 Bft) 97,83 %
14.11.2015 19:06 8,7 C 8,3 C 7,2 C 95 % 15 lf 1020,8 hPa 0,0 l/m 0 min 0 min 0 W/m 14,6 km/h (3 Bft) 97,87 %
14.11.2015 19:08 8,7 C 8,3 C 7,2 C 95 % 15 lf 1020,9 hPa 0,0 l/m 0 min 0 min 0 W/m 18,8 km/h (3 Bft) 93,18 %
14.11.2015 19:10 8,7 C 8,3 C 7,2 C 95 % 15 lf 1020,8 hPa 0,0 l/m 0 min 0 min 0 W/m 18,8 km/h (3 Bft) 96,00 %
14.11.2015 19:12 8,7 C 8,3 C 7,2 C 95 % 15 lf 1020,8 hPa 0,0 l/m 0 min 0 min 0 W/m 20,9 km/h (4 Bft) 95,74 %
14.11.2015 19:14 8,7 C 8,3 C 7,2 C 95 % 15 lf 1020,8 hPa 0,0 l/m 0 min 2 min 0 W/m 18,8 km/h (3 Bft) 93,62 %
14.11.2015 19:16 8,7 C 8,3 C 7,2 C 95 % 15 lf 1020,7 hPa 0,0 l/m 0 min 0 min 0 W/m 31,4 km/h (5 Bft) 97,83 %
14.11.2015 19:18 8,7 C 8,3 C 7,2 C 95 % 15 lf 1020,7 hPa 0,0 l/m 0 min 2 min 0 W/m 27,2 km/h (4 Bft) 97,87 %
14.11.2015 19:20 8,7 C 8,3 C 7,2 C 95 % 15 lf 1020,7 hPa 0,0 l/m 0 min 2 min 0 W/m 27,2 km/h (4 Bft) 97,73 %
14.11.2015 19:22 8,7 C 8,3 C 7,2 C 95 % 15 lf 1020,7 hPa 0,0 l/m 0 min 2 min 0 W/m 25,1 km/h (4 Bft) 97,87 %
14.11.2015 19:24 8,7 C 8,3 C 7,2 C 95 % 15 lf 1020,7 hPa 0,0 l/m 0 min 2 min 0 W/m 23,0 km/h (4 Bft) 98,00 %
14.11.2015 19:26 8,7 C 8,3 C 7,2 C 95 % 15 lf 1020,7 hPa 0,0 l/m 0 min 0 min 0 W/m 20,9 km/h (4 Bft) 97,87 %
14.11.2015 19:28 8,7 C 8,3 C 7,2 C 95 % 15 lf 1020,7 hPa 0,0 l/m 0 min 0 min 0 W/m 29,3 km/h (5 Bft) 100,00 %
14.11.2015 19:30 8,7 C 8,3 C 7,2 C 95 % 15 lf 1020,7 hPa 0,0 l/m 0 min 2 min 0 W/m 20,9 km/h (4 Bft) 97,73 %
14.11.2015 19:32 8,7 C 8,3 C 7,2 C 95 % 15 lf 1020,7 hPa 0,0 l/m 0 min 2 min 0 W/m 27,2 km/h (4 Bft) 100,00 %
14.11.2015 19:34 8,7 C 8,3 C 7,2 C 95 % 15 lf 1020,6 hPa 0,0 l/m 0 min 2 min 0 W/m 16,7 km/h (3 Bft) 98,00 %
14.11.2015 19:36 8,7 C 8,3 C 7,2 C 95 % 15 lf 1020,5 hPa 0,0 l/m 0 min 2 min 0 W/m 16,7 km/h (3 Bft) 97,87 %
14.11.2015 19:38 8,7 C 8,3 C 7,2 C 95 % 15 lf 1020,4 hPa 0,0 l/m 0 min 2 min 0 W/m 27,2 km/h (4 Bft) 100,00 %
14.11.2015 19:40 8,7 C 8,3 C 7,2 C 95 % 15 lf 1020,4 hPa 0,0 l/m 0 min 2 min 0 W/m 25,1 km/h (4 Bft) 95,65 %
14.11.2015 19:42 8,7 C 8,3 C 7,2 C 95 % 15 lf 1020,4 hPa 0,0 l/m 0 min 2 min 0 W/m 23,0 km/h (4 Bft) 97,87 %
14.11.2015 19:44 8,7 C 8,3 C 7,2 C 95 % 15 lf 1020,4 hPa 0,0 l/m 0 min 2 min 0 W/m 27,2 km/h (4 Bft) 93,62 %
14.11.2015 19:46 8,7 C 8,3 C 7,2 C 95 % 15 lf 1020,3 hPa 0,0 l/m 0 min 2 min 0 W/m 16,7 km/h (3 Bft) 100,00 %
14.11.2015 19:48 8,7 C 8,3 C 7,2 C 95 % 15 lf 1020,3 hPa 0,0 l/m 0 min 2 min 0 W/m 25,1 km/h (4 Bft) 100,00 %
14.11.2015 19:50 8,7 C 8,3 C 7,2 C 95 % 15 lf 1020,3 hPa 0,0 l/m 0 min 2 min 0 W/m 25,1 km/h (4 Bft) 100,00 %
14.11.2015 19:52 8,7 C 8,3 C 7,2 C 95 % 15 lf 1020,2 hPa 0,0 l/m 0 min 2 min 0 W/m 25,1 km/h (4 Bft) 98,00 %
14.11.2015 19:54 8,7 C 8,3 C 7,2 C 95 % 15 lf 1020,3 hPa 0,0 l/m 0 min 2 min 0 W/m 25,1 km/h (4 Bft) 97,87 %
14.11.2015 19:56 8,7 C 8,3 C 7,2 C 95 % 15 lf 1020,2 hPa 0,0 l/m 0 min 2 min 0 W/m 20,9 km/h (4 Bft) 97,87 %
14.11.2015 19:58 8,7 C 8,3 C 7,2 C 95 % 15 lf 1020,3 hPa 0,0 l/m 0 min 2 min 0 W/m 25,1 km/h (4 Bft) 93,62 %
14.11.2015 20:00 8,7 C 8,3 C 7,2 C 95 % 15 lf 1020,2 hPa 0,2 l/m 0 min 2 min 0 W/m 31,4 km/h (5 Bft) 100,00 %
14.11.2015 20:02 8,7 C 8,3 C 7,2 C 95 % 15 lf 1020,1 hPa 0,0 l/m 0 min 2 min 0 W/m 25,1 km/h (4 Bft) 97,96 %
14.11.2015 20:04 8,7 C 8,3 C 7,2 C 95 % 15 lf 1020,1 hPa 0,0 l/m 0 min 2 min 0 W/m 23,0 km/h (4 Bft) 93,62 %
14.11.2015 20:06 8,7 C 8,3 C 7,2 C 94 % 15 lf 1020,0 hPa 0,0 l/m 0 min 2 min 0 W/m 23,0 km/h (4 Bft) 97,87 %
14.11.2015 20:08 8,7 C 8,3 C 7,2 C 94 % 15 lf 1019,9 hPa 0,0 l/m 0 min 2 min 0 W/m 29,3 km/h (5 Bft) 97,87 %
14.11.2015 20:10 8,7 C 8,3 C 7,2 C 94 % 15 lf 1019,9 hPa 0,0 l/m 0 min 2 min 0 W/m 27,2 km/h (4 Bft) 95,45 %
14.11.2015 20:12 8,8 C 8,3 C 7,2 C 94 % 15 lf 1019,9 hPa 0,0 l/m 0 min 2 min 0 W/m 23,0 km/h (4 Bft) 97,96 %
14.11.2015 20:14 8,8 C 8,3 C 7,2 C 94 % 15 lf 1019,9 hPa 0,0 l/m 0 min 2 min 0 W/m 27,2 km/h (4 Bft) 95,74 %
14.11.2015 20:16 8,8 C 8,3 C 7,2 C 94 % 15 lf 1019,8 hPa 0,0 l/m 0 min 2 min 0 W/m 23,0 km/h (4 Bft) 97,87 %
14.11.2015 20:18 8,8 C 8,3 C 7,2 C 94 % 15 lf 1019,7 hPa 0,0 l/m 0 min 2 min 0 W/m 35,6 km/h (5 Bft) 95,45 %
14.11.2015 20:20 8,8 C 8,3 C 7,2 C 94 % 15 lf 1019,7 hPa 0,0 l/m 0 min 2 min 0 W/m 29,3 km/h (5 Bft) 98,00 %
14.11.2015 20:22 8,8 C 8,3 C 7,2 C 94 % 15 lf 1019,6 hPa 0,0 l/m 0 min 2 min 0 W/m 29,3 km/h (5 Bft) 91,49 %
14.11.2015 20:24 8,8 C 8,3 C 6,7 C 94 % 15 lf 1019,5 hPa 0,0 l/m 0 min 2 min 0 W/m 29,3 km/h (5 Bft) 95,74 %
14.11.2015 20:26 8,8 C 8,3 C 6,7 C 94 % 15 lf 1019,4 hPa 0,0 l/m 0 min 2 min 0 W/m 27,2 km/h (4 Bft) 95,65 %
14.11.2015 20:28 8,8 C 8,3 C 6,7 C 93 % 15 lf 1019,4 hPa 0,0 l/m 0 min 2 min 0 W/m 35,6 km/h (5 Bft) 95,74 %
14.11.2015 20:30 8,8 C 8,3 C 6,7 C 93 % 15 lf 1019,3 hPa 0,0 l/m 0 min 2 min 0 W/m 18,8 km/h (3 Bft) 95,45 %
14.11.2015 20:32 8,8 C 8,3 C 6,7 C 93 % 15 lf 1019,3 hPa 0,0 l/m 0 min 2 min 0 W/m 35,6 km/h (5 Bft) 96,00 %
14.11.2015 20:34 8,8 C 8,3 C 6,7 C 93 % 15 lf 1019,3 hPa 0,0 l/m 0 min 2 min 0 W/m 41,8 km/h (6 Bft) 93,62 %
14.11.2015 20:36 8,8 C 8,3 C 6,7 C 93 % 15 lf 1019,2 hPa 0,0 l/m 0 min 2 min 0 W/m 27,2 km/h (4 Bft) 93,62 %
14.11.2015 20:38 8,8 C 8,3 C 6,7 C 93 % 15 lf 1019,2 hPa 0,0 l/m 0 min 2 min 0 W/m 31,4 km/h (5 Bft) 95,65 %
14.11.2015 20:40 8,8 C 8,3 C 6,7 C 93 % 15 lf 1019,1 hPa 0,0 l/m 0 min 2 min 0 W/m 25,1 km/h (4 Bft) 95,74 %
14.11.2015 20:42 8,8 C 8,3 C 6,7 C 93 % 15 lf 1019,0 hPa 0,0 l/m 0 min 2 min 0 W/m 25,1 km/h (4 Bft) 93,62 %
14.11.2015 20:44 8,8 C 8,3 C 6,7 C 93 % 15 lf 1019,0 hPa 0,0 l/m 0 min 2 min 0 W/m 25,1 km/h (4 Bft) 95,45 %
14.11.2015 20:46 8,8 C 7,8 C 6,7 C 92 % 15 lf 1018,8 hPa 0,0 l/m 0 min 2 min 0 W/m 29,3 km/h (5 Bft) 92,00 %
14.11.2015 20:48 8,8 C 7,8 C 6,7 C 92 % 15 lf 1018,9 hPa 0,0 l/m 0 min 2 min 0 W/m 41,8 km/h (6 Bft) 95,65 %
14.11.2015 20:50 8,8 C 7,8 C 6,7 C 92 % 15 lf 1018,8 hPa 0,0 l/m 0 min 2 min 0 W/m 18,8 km/h (3 Bft) 93,62 %
14.11.2015 20:52 8,7 C 7,8 C 6,7 C 92 % 15 lf 1018,9 hPa 0,0 l/m 0 min 2 min 0 W/m 29,3 km/h (5 Bft) 93,62 %
14.11.2015 20:54 8,7 C 7,8 C 6,7 C 92 % 15 lf 1018,8 hPa 0,0 l/m 0 min 2 min 0 W/m 25,1 km/h (4 Bft) 95,45 %
14.11.2015 20:56 8,7 C 7,8 C 6,7 C 92 % 15 lf 1018,7 hPa 0,0 l/m 0 min 2 min 0 W/m 29,3 km/h (5 Bft) 94,00 %
14.11.2015 20:58 8,7 C 7,8 C 6,7 C 92 % 15 lf 1018,7 hPa 0,0 l/m 0 min 2 min 0 W/m 43,9 km/h (6 Bft) 95,65 %
14.11.2015 21:00 8,7 C 7,8 C 6,7 C 92 % 15 lf 1018,7 hPa 0,0 l/m 0 min 2 min 0 W/m 23,0 km/h (4 Bft) 95,74 %
14.11.2015 21:02 8,7 C 7,8 C 6,7 C 92 % 15 lf 1018,7 hPa 0,0 l/m 0 min 2 min 0 W/m 29,3 km/h (5 Bft) 91,49 %
14.11.2015 21:04 8,6 C 7,8 C 6,7 C 92 % 15 lf 1018,6 hPa 0,0 l/m 0 min 2 min 0 W/m 23,0 km/h (4 Bft) 100,00 %
14.11.2015 21:06 8,6 C 7,8 C 6,7 C 92 % 15 lf 1018,7 hPa 0,0 l/m 0 min 2 min 0 W/m 18,8 km/h (3 Bft) 97,87 %
14.11.2015 21:08 8,6 C 7,8 C 6,7 C 92 % 15 lf 1018,5 hPa 0,0 l/m 0 min 2 min 0 W/m 16,7 km/h (3 Bft) 95,45 %
14.11.2015 21:10 8,6 C 7,8 C 6,7 C 92 % 15 lf 1018,4 hPa 0,2 l/m 0 min 2 min 0 W/m 20,9 km/h (4 Bft) 97,96 %
14.11.2015 21:12 8,6 C 7,8 C 6,7 C 91 % 15 lf 1018,5 hPa 0,0 l/m 0 min 2 min 0 W/m 16,7 km/h (3 Bft) 97,92 %
14.11.2015 21:14 8,6 C 7,8 C 6,7 C 91 % 15 lf 1018,4 hPa 0,0 l/m 0 min 2 min 0 W/m 16,7 km/h (3 Bft) 95,65 %
14.11.2015 21:16 8,6 C 7,8 C 6,7 C 92 % 15 lf 1018,4 hPa 0,0 l/m 0 min 2 min 0 W/m 37,7 km/h (5 Bft) 95,45 %
14.11.2015 21:18 8,5 C 7,8 C 6,7 C 92 % 15 lf 1018,4 hPa 0,0 l/m 0 min 2 min 0 W/m 33,5 km/h (5 Bft) 96,00 %
14.11.2015 21:20 8,5 C 7,8 C 6,7 C 92 % 15 lf 1018,3 hPa 0,0 l/m 0 min 2 min 0 W/m 25,1 km/h (4 Bft) 95,74 %
14.11.2015 21:22 8,5 C 7,8 C 6,7 C 92 % 15 lf 1018,3 hPa 0,0 l/m 0 min 2 min 0 W/m 20,9 km/h (4 Bft) 97,87 %
14.11.2015 21:24 8,4 C 7,8 C 6,7 C 92 % 15 lf 1018,3 hPa 0,0 l/m 0 min 2 min 0 W/m 33,5 km/h (5 Bft) 97,67 %
14.11.2015 21:26 8,4 C 7,8 C 6,7 C 92 % 15 lf 1018,3 hPa 0,0 l/m 0 min 2 min 0 W/m 16,7 km/h (3 Bft) 96,00 %
14.11.2015 21:28 8,4 C 7,8 C 6,7 C 92 % 15 lf 1018,2 hPa 0,0 l/m 0 min 2 min 0 W/m 27,2 km/h (4 Bft) 97,87 %
14.11.2015 21:30 8,4 C 7,8 C 6,7 C 92 % 15 lf 1018,2 hPa 0,0 l/m 0 min 2 min 0 W/m 23,0 km/h (4 Bft) 97,87 %
14.11.2015 21:32 8,4 C 7,8 C 6,7 C 92 % 15 lf 1018,1 hPa 0,0 l/m 0 min 2 min 0 W/m 20,9 km/h (4 Bft) 95,74 %
14.11.2015 21:34 8,4 C 7,8 C 6,7 C 92 % 15 lf 1018,1 hPa 0,0 l/m 0 min 2 min 0 W/m 33,5 km/h (5 Bft) 95,35 %
14.11.2015 21:36 8,4 C 7,8 C 6,7 C 92 % 15 lf 1017,9 hPa 0,0 l/m 0 min 2 min 0 W/m 33,5 km/h (5 Bft) 94,00 %
14.11.2015 21:38 8,4 C 7,8 C 6,7 C 92 % 15 lf 1018,0 hPa 0,0 l/m 0 min 2 min 0 W/m 25,1 km/h (4 Bft) 95,74 %
14.11.2015 21:40 8,4 C 7,8 C 6,7 C 92 % 15 lf 1018,0 hPa 0,2 l/m 0 min 2 min 0 W/m 20,9 km/h (4 Bft) 91,49 %
14.11.2015 21:42 8,3 C 7,8 C 6,7 C 92 % 15 lf 1018,0 hPa 0,0 l/m 0 min 2 min 0 W/m 31,4 km/h (5 Bft) 95,45 %
14.11.2015 21:44 8,3 C 7,8 C 6,7 C 92 % 15 lf 1018,1 hPa 0,0 l/m 0 min 2 min 0 W/m 31,4 km/h (5 Bft) 96,00 %
14.11.2015 21:46 8,3 C 7,8 C 6,7 C 93 % 15 lf 1018,0 hPa 0,0 l/m 0 min 2 min 0 W/m 14,6 km/h (3 Bft) 95,74 %
14.11.2015 21:48 8,3 C 7,8 C 6,7 C 93 % 15 lf 1017,8 hPa 0,2 l/m 0 min 2 min 0 W/m 33,5 km/h (5 Bft) 93,48 %
14.11.2015 21:50 8,3 C 7,8 C 6,7 C 93 % 15 lf 1017,8 hPa 0,0 l/m 0 min 2 min 0 W/m 29,3 km/h (5 Bft) 93,18 %
14.11.2015 21:52 8,3 C 7,8 C 6,7 C 93 % 15 lf 1017,7 hPa 0,0 l/m 0 min 2 min 0 W/m 29,3 km/h (5 Bft) 95,74 %
14.11.2015 21:54 8,3 C 7,8 C 6,7 C 93 % 15 lf 1017,7 hPa 0,2 l/m 0 min 2 min 0 W/m 18,8 km/h (3 Bft) 95,74 %
14.11.2015 21:56 8,3 C 7,8 C 6,7 C 93 % 15 lf 1017,6 hPa 0,0 l/m 0 min 2 min 0 W/m 25,1 km/h (4 Bft) 94,00 %
14.11.2015 21:58 8,3 C 7,8 C 6,7 C 93 % 15 lf 1017,6 hPa 0,2 l/m 0 min 2 min 0 W/m 23,0 km/h (4 Bft) 93,48 %
14.11.2015 22:00 8,3 C 7,8 C 6,7 C 93 % 15 lf 1017,4 hPa 0,0 l/m 0 min 2 min 0 W/m 25,1 km/h (4 Bft) 93,62 %
14.11.2015 22:02 8,3 C 7,8 C 6,7 C 94 % 15 lf 1017,4 hPa 0,0 l/m 0 min 2 min 0 W/m 12,6 km/h (3 Bft) 93,62 %
14.11.2015 22:04 8,3 C 7,8 C 6,7 C 94 % 15 lf 1017,3 hPa 0,0 l/m 0 min 2 min 0 W/m 20,9 km/h (4 Bft) 95,45 %
14.11.2015 22:06 8,3 C 7,8 C 6,7 C 94 % 15 lf 1017,3 hPa 0,0 l/m 0 min 2 min 0 W/m 20,9 km/h (4 Bft) 91,49 %
14.11.2015 22:08 8,3 C 7,8 C 6,7 C 94 % 15 lf 1017,3 hPa 0,2 l/m 0 min 2 min 0 W/m 23,0 km/h (4 Bft) 94,00 %
14.11.2015 22:10 8,2 C 7,8 C 6,7 C 94 % 15 lf 1017,3 hPa 0,0 l/m 0 min 0 min 0 W/m 18,8 km/h (3 Bft) 95,74 %
14.11.2015 22:12 8,2 C 7,8 C 6,7 C 94 % 15 lf 1017,3 hPa 0,0 l/m 0 min 2 min 0 W/m 23,0 km/h (4 Bft) 95,65 %
14.11.2015 22:14 8,3 C 7,8 C 6,7 C 94 % 15 lf 1017,2 hPa 0,0 l/m 0 min 2 min 0 W/m 20,9 km/h (4 Bft) 95,45 %
14.11.2015 22:16 8,2 C 7,8 C 6,7 C 94 % 15 lf 1017,2 hPa 0,0 l/m 0 min 2 min 0 W/m 25,1 km/h (4 Bft) 98,00 %
14.11.2015 22:18 8,2 C 7,8 C 6,7 C 94 % 15 lf 1017,0 hPa 0,0 l/m 0 min 2 min 0 W/m 25,1 km/h (4 Bft) 96,00 %
14.11.2015 22:20 8,2 C 7,8 C 6,7 C 94 % 15 lf 1017,0 hPa 0,0 l/m 0 min 2 min 0 W/m 23,0 km/h (4 Bft) 97,87 %
14.11.2015 22:22 8,3 C 7,8 C 6,7 C 94 % 15 lf 1016,9 hPa 0,0 l/m 0 min 2 min 0 W/m 25,1 km/h (4 Bft) 97,83 %
14.11.2015 22:24 8,3 C 7,8 C 6,7 C 95 % 15 lf 1017,0 hPa 0,0 l/m 0 min 2 min 0 W/m 20,9 km/h (4 Bft) 97,22 %
14.11.2015 22:26 8,3 C 7,8 C 6,7 C 95 % 15 lf 1016,8 hPa 0,0 l/m 0 min 2 min 0 W/m 27,2 km/h (4 Bft) 100,00 %
14.11.2015 22:28 8,3 C 7,8 C 6,7 C 95 % 15 lf 1016,8 hPa 0,2 l/m 0 min 2 min 0 W/m 27,2 km/h (4 Bft) 98,00 %
14.11.2015 22:30 8,3 C 7,8 C 6,7 C 95 % 15 lf 1016,8 hPa 0,0 l/m 0 min 2 min 0 W/m 35,6 km/h (5 Bft) 97,87 %
14.11.2015 22:32 8,3 C 7,8 C 6,7 C 95 % 15 lf 1016,7 hPa 0,0 l/m 0 min 2 min 0 W/m 25,1 km/h (4 Bft) 91,49 %
14.11.2015 22:34 8,3 C 7,8 C 6,7 C 95 % 15 lf 1016,7 hPa 0,0 l/m 0 min 2 min 0 W/m 33,5 km/h (5 Bft) 100,00 %
14.11.2015 22:36 8,3 C 7,8 C 6,7 C 95 % 15 lf 1016,6 hPa 0,2 l/m 0 min 2 min 0 W/m 27,2 km/h (4 Bft) 96,36 %
14.11.2015 22:38 8,3 C 7,8 C 6,7 C 95 % 15 lf 1016,7 hPa 0,0 l/m 0 min 2 min 0 W/m 29,3 km/h (5 Bft) 100,00 %
14.11.2015 22:40 8,3 C 7,8 C 7,2 C 95 % 15 lf 1016,6 hPa 0,0 l/m 0 min 2 min 0 W/m 41,8 km/h (6 Bft) 97,87 %
14.11.2015 22:42 8,3 C 8,3 C 7,2 C 95 % 15 lf 1016,5 hPa 0,0 l/m 0 min 2 min 0 W/m 35,6 km/h (5 Bft) 97,14 %
14.11.2015 22:44 8,4 C 8,3 C 7,2 C 95 % 15 lf 1016,4 hPa 0,0 l/m 0 min 2 min 0 W/m 29,3 km/h (5 Bft) 98,18 %
14.11.2015 22:46 8,4 C 8,3 C 7,2 C 95 % 15 lf 1016,4 hPa 0,0 l/m 0 min 0 min 0 W/m 35,6 km/h (5 Bft) 100,00 %
14.11.2015 22:48 8,4 C 8,3 C 7,2 C 95 % 15 lf 1016,3 hPa 0,0 l/m 0 min 0 min 0 W/m 33,5 km/h (5 Bft) 100,00 %
14.11.2015 22:50 8,4 C 8,3 C 7,2 C 95 % 15 lf 1016,2 hPa 0,0 l/m 0 min 0 min 0 W/m 35,6 km/h (5 Bft) 97,14 %
14.11.2015 22:52 8,4 C 8,3 C 7,2 C 96 % 15 lf 1016,3 hPa 0,0 l/m 0 min 0 min 0 W/m 37,7 km/h (5 Bft) 93,62 %
14.11.2015 22:54 8,4 C 8,3 C 7,2 C 96 % 15 lf 1016,2 hPa 0,0 l/m 0 min 0 min 0 W/m 23,0 km/h (4 Bft) 100,00 %
14.11.2015 22:56 8,5 C 8,3 C 7,2 C 96 % 15 lf 1016,2 hPa 0,0 l/m 0 min 0 min 0 W/m 29,3 km/h (5 Bft) 100,00 %
14.11.2015 22:58 8,6 C 8,3 C 7,2 C 96 % 15 lf 1016,1 hPa 0,0 l/m 0 min 0 min 0 W/m 33,5 km/h (5 Bft) 95,74 %
14.11.2015 23:00 8,6 C 8,3 C 7,2 C 96 % 15 lf 1016,1 hPa 0,0 l/m 0 min 0 min 0 W/m 33,5 km/h (5 Bft) 96,00 %
14.11.2015 23:02 8,6 C 8,3 C 7,2 C 96 % 15 lf 1016,1 hPa 0,0 l/m 0 min 0 min 0 W/m 37,7 km/h (5 Bft) 93,62 %
14.11.2015 23:04 8,6 C 8,3 C 7,2 C 96 % 15 lf 1016,0 hPa 0,0 l/m 0 min 0 min 0 W/m 33,5 km/h (5 Bft) 97,14 %
14.11.2015 23:06 8,7 C 8,3 C 7,2 C 96 % 15 lf 1015,9 hPa 0,0 l/m 0 min 0 min 0 W/m 33,5 km/h (5 Bft) 97,87 %
14.11.2015 23:08 8,7 C 8,3 C 7,2 C 96 % 15 lf 1015,8 hPa 0,0 l/m 0 min 0 min 0 W/m 33,5 km/h (5 Bft) 93,62 %
14.11.2015 23:10 8,7 C 8,3 C 7,2 C 96 % 15 lf 1015,8 hPa 0,0 l/m 0 min 0 min 0 W/m 50,2 km/h (7 Bft) 94,55 %
14.11.2015 23:12 8,7 C 8,3 C 7,2 C 96 % 15 lf 1015,7 hPa 0,0 l/m 0 min 0 min 0 W/m 43,9 km/h (6 Bft) 98,00 %
14.11.2015 23:14 8,8 C 8,9 C 7,2 C 96 % 15 lf 1015,9 hPa 0,0 l/m 0 min 0 min 0 W/m 52,3 km/h (7 Bft) 93,62 %
14.11.2015 23:16 8,8 C 8,9 C 7,8 C 96 % 15 lf 1015,6 hPa 0,0 l/m 0 min 0 min 0 W/m 41,8 km/h (6 Bft) 97,14 %
14.11.2015 23:18 8,9 C 8,9 C 7,8 C 96 % 15 lf 1015,7 hPa 0,0 l/m 0 min 0 min 0 W/m 35,6 km/h (5 Bft) 97,87 %
14.11.2015 23:20 8,9 C 8,9 C 7,8 C 96 % 15 lf 1015,6 hPa 0,0 l/m 0 min 0 min 0 W/m 37,7 km/h (5 Bft) 91,49 %
14.11.2015 23:22 8,9 C 8,9 C 7,8 C 96 % 15 lf 1015,4 hPa 0,0 l/m 0 min 0 min 0 W/m 39,7 km/h (6 Bft) 96,36 %
14.11.2015 23:24 9,0 C 8,9 C 7,8 C 96 % 15 lf 1015,4 hPa 0,0 l/m 0 min 0 min 0 W/m 35,6 km/h (5 Bft) 97,87 %
14.11.2015 23:26 9,0 C 8,9 C 7,8 C 96 % 15 lf 1015,5 hPa 0,0 l/m 0 min 0 min 0 W/m 41,8 km/h (6 Bft) 98,00 %
14.11.2015 23:28 9,1 C 8,9 C 7,8 C 96 % 15 lf 1015,4 hPa 0,0 l/m 0 min 0 min 0 W/m 37,7 km/h (5 Bft) 95,74 %
14.11.2015 23:30 9,1 C 8,9 C 7,8 C 96 % 15 lf 1015,3 hPa 0,0 l/m 0 min 0 min 0 W/m 50,2 km/h (7 Bft) 94,29 %
14.11.2015 23:32 9,2 C 8,9 C 7,8 C 96 % 15 lf 1015,3 hPa 0,0 l/m 0 min 0 min 0 W/m 46,0 km/h (6 Bft) 96,36 %
14.11.2015 23:34 9,2 C 8,9 C 7,8 C 96 % 15 lf 1015,2 hPa 0,0 l/m 0 min 0 min 0 W/m 31,4 km/h (5 Bft) 98,00 %
14.11.2015 23:36 9,2 C 8,9 C 7,8 C 97 % 15 lf 1015,2 hPa 0,0 l/m 0 min 0 min 0 W/m 31,4 km/h (5 Bft) 95,74 %
14.11.2015 23:38 9,2 C 8,9 C 7,8 C 97 % 15 lf 1015,1 hPa 0,0 l/m 0 min 0 min 0 W/m 33,5 km/h (5 Bft) 94,29 %
14.11.2015 23:40 9,3 C 8,9 C 7,8 C 97 % 15 lf 1015,1 hPa 0,0 l/m 0 min 0 min 0 W/m 46,0 km/h (6 Bft) 92,86 %
14.11.2015 23:42 9,3 C 9,4 C 7,8 C 97 % 15 lf 1015,0 hPa 0,0 l/m 0 min 0 min 0 W/m 37,7 km/h (5 Bft) 91,84 %
14.11.2015 23:44 9,4 C 9,4 C 7,8 C 97 % 15 lf 1015,0 hPa 0,0 l/m 0 min 0 min 0 W/m 37,7 km/h (5 Bft) 93,62 %
14.11.2015 23:46 9,4 C 9,4 C 7,8 C 97 % 15 lf 1015,0 hPa 0,0 l/m 0 min 0 min 0 W/m 41,8 km/h (6 Bft) 97,14 %
14.11.2015 23:48 9,4 C 9,4 C 8,3 C 96 % 15 lf 1014,9 hPa 0,0 l/m 0 min 0 min 0 W/m 33,5 km/h (5 Bft) 95,74 %
14.11.2015 23:50 9,5 C 9,4 C 8,3 C 96 % 15 lf 1015,0 hPa 0,0 l/m 0 min 0 min 0 W/m 39,7 km/h (6 Bft) 96,43 %
14.11.2015 23:52 9,5 C 9,4 C 8,3 C 96 % 15 lf 1014,9 hPa 0,0 l/m 0 min 0 min 0 W/m 29,3 km/h (5 Bft) 98,00 %
14.11.2015 23:54 9,6 C 9,4 C 8,3 C 96 % 15 lf 1015,0 hPa 0,0 l/m 0 min 0 min 0 W/m 50,2 km/h (7 Bft) 95,65 %
14.11.2015 23:56 9,6 C 9,4 C 8,3 C 97 % 15 lf 1014,9 hPa 0,0 l/m 0 min 0 min 0 W/m 37,7 km/h (5 Bft) 97,22 %
14.11.2015 23:58 9,7 C 9,4 C 8,3 C 97 % 15 lf 1015,0 hPa 0,0 l/m 0 min 0 min 0 W/m 52,3 km/h (7 Bft) 98,18 %
_ Min-Zeit 02:04 01:42 01:22 00:56 00:00 23:48 - - - - 15:36 00:50
Minimum _ 7,0 C 6,7 C 5,6 C 79 % 0 lf 1014,9 hPa - - - - 2,1 km/h (1 Bft) 87,23 %
_ Max-Zeit 14:00 10:40 11:54 23:36 15:06 11:16 15:30 09:00 08:16 10:40 07:16 00:05
Maximum _ 10,7 C 12,8 C 10,0 C 97 % 15 lf 1025,6 hPa 0,2 l/m 2 min 2 min 249 W/m 52,3 km/h
W-SW (7 Bft)
100,00 %
Durchschnitt _ 8,6 C 8,7 C 7,3 C 87 % 6 lf 1023,0 hPa #3,0 l/m #2:30 h #7:08 h 100 W/m 27,7 km/h (4 Bft) 96,06 %
© 2015 W. Hausmann